GFSSGP_con_mlcape_081.txt.gz
CAPE
0 0 0 0 0 0 0 0 0 0 0 0 0 0 0 0 1 59 1092 1068 1646 1619 1180 1063 1546 1558 1169 1141 1063 1038 1089 905 913 815 644 499 417 352 344 352 478 606 599 548 378 230 270 322 108
0 0 0 0 0 0 0 0 0 0 0 0 0 0 0 0 299 1097 1172 1215 1273 1635 1317 993 1169 1712 1510 1253 1135 1022 1078 1012 984 924 771 651 499 439 454 708 852 842 692 389 259 235 218 115 55
0 0 0 0 0 0 0 0 0 0 0 0 0 0 0 46 191 992 958 1264 1372 1529 1542 1136 983 1441 1273 1001 950 1064 955 658 868 982 819 708 667 708 767 763 730 658 592 516 359 136 190 21 15
0 0 0 0 0 0 0 0 0 0 0 0 0 0 9 15 127 818 877 1189 1320 1377 1509 1105 858 945 836 442 537 467 236 185 7 99 963 826 873 1017 797 564 594 543 624 451 158 121 4 0 14
0 0 0 0 0 0 0 0 0 0 0 0 0 0 0 439 550 618 867 913 1074 1359 1285 978 749 651 659 174 255 137 151 22 0 0 220 745 968 864 733 584 507 578 454 166 43 0 0 0 0
0 0 0 0 0 0 0 0 0 0 0 0 0 0 99 436 457 668 672 915 960 1423 1127 944 611 444 370 361 204 26 0 0 0 0 0 448 819 717 565 465 446 458 174 29 0 0 0 0 0
0 0 0 0 0 0 0 0 0 0 0 0 0 0 255 496 736 648 927 1043 1024 1047 1120 930 689 455 274 153 102 11 0 0 2 0 4 366 705 569 389 432 436 234 51 28 0 0 0 0 0
0 0 0 0 0 0 0 0 0 0 0 0 0 0 242 543 448 585 786 780 741 751 606 1116 801 531 234 140 67 0 0 0 0 0 0 482 500 427 395 420 268 67 17 5 0 0 0 0 0
0 0 0 0 0 0 0 0 0 0 0 0 0 0 13 453 367 437 621 522 513 550 538 728 1150 965 431 154 15 4 0 0 7 2 0 342 360 360 315 183 73 2 0 0 0 0 0 0 0
0 0 0 0 0 0 0 0 0 0 0 0 0 13 423 263 94 220 529 575 641 538 498 534 734 774 595 523 40 0 0 0 0 6 58 187 221 153 133 73 18 0 0 0 0 0 0 0 0
0 0 0 0 0 0 0 0 0 0 0 0 0 2 97 80 94 107 298 508 597 590 652 606 600 484 376 268 137 82 0 0 0 0 79 148 129 77 23 6 1 0 0 0 0 0 0 0 0
0 0 0 0 0 0 0 0 0 0 0 0 0 0 8 124 131 41 102 469 502 526 650 751 626 410 313 141 47 71 27 0 2 61 68 47 25 17 2 2 0 0 0 0 0 0 0 0 0
0 0 0 0 0 0 0 0 0 0 0 0 0 0 0 0 7 0 2 354 506 511 444 442 284 140 25 3 5 17 37 34 3 52 44 1 6 1 0 0 0 0 0 0 0 0 0 0 0
0 0 0 0 0 0 0 0 0 0 0 0 0 0 0 0 0 0 23 276 465 509 399 306 112 2 0 0 0 12 21 21 23 18 4 0 3 13 0 0 0 0 0 0 0 0 0 0 0
0 0 0 0 0 0 0 0 0 0 0 0 0 0 0 0 0 0 0 146 316 377 256 197 43 1 0 0 0 0 1 2 3 2 1 0 6 11 0 0 0 0 0 0 0 0 0 0 0
0 0 0 0 0 0 0 0 0 0 0 0 0 0 0 0 0 0 0 0 119 187 131 161 42 1 0 0 1 0 0 0 2 3 2 1 1 4 0 0 0 0 0 0 0 1 0 0 0
0 0 0 0 0 0 0 0 0 0 0 0 0 0 0 0 0 0 0 0 13 50 37 14 28 4 0 0 0 1 1 2 2 3 3 0 0 19 2 0 0 0 0 0 1 1 0 0 0
0 0 0 0 0 0 0 0 0 0 0 0 0 0 0 0 0 0 0 0 0 1 0 0 3 13 7 0 0 0 2 1 0 2 0 0 1 7 20 22 22 25 18 0 0 1 0 0 0
0 0 0 0 0 0 0 0 0 0 0 0 0 0 0 0 1 0 0 0 0 0 0 0 2 1 4 5 1 0 1 2 2 0 0 0 10 2 12 19 24 74 47 0 0 0 0 0 0
0 0 0 0 0 0 0 0 0 0 0 0 0 0 0 0 1 6 0 0 0 0 0 0 0 2 2 2 2 2 2 2 2 0 0 0 0 0 4 3 7 19 28 10 0 0 0 0 0
0 0 0 0 0 0 0 0 0 0 0 0 0 0 0 0 6 7 0 0 0 0 0 0 0 2 2 3 3 2 3 3 5 2 0 0 0 0 0 0 3 1 4 0 0 0 0 0 0
0 0 0 2 0 0 0 0 0 0 0 0 0 0 0 0 10 19 5 0 0 0 0 0 0 0 1 5 2 1 2 2 2 0 0 0 1 0 0 0 0 0 2 9 2 0 0 0 0
0 0 0 0 3 2 0 0 0 0 0 0 0 0 0 0 0 23 18 0 0 0 0 0 0 1 3 6 3 1 1 1 1 1 0 0 0 0 0 0 0 7 13 2 10 4 19 18 0
1 3 0 0 3 0 0 0 0 0 0 0 0 0 0 0 0 38 42 0 0 0 0 0 0 1 1 3 5 1 0 0 2 1 0 0 0 0 0 0 0 0 14 28 10 37 62 45 39
0 2 0 0 0 0 0 0 0 0 0 0 0 0 0 0 0 29 72 66 0 0 0 0 0 0 1 1 4 4 0 0 0 0 0 0 0 0 0 0 0 2 11 34 58 57 63 92 68
0 1 0 0 0 0 0 0 0 0 0 0 0 0 0 0 0 29 119 125 49 0 0 0 0 0 0 2 3 2 5 0 0 0 0 0 0 0 0 0 0 0 14 32 71 89 90 91 63
0 0 0 0 0 0 0 0 0 0 0 0 0 0 0 0 0 76 158 149 99 0 0 0 0 0 0 1 1 1 1 0 0 0 0 0 0 0 0 0 0 0 0 11 25 58 66 60 37
0 0 0 0 0 0 0 0 2 0 0 0 0 0 0 0 0 10 168 181 126 17 0 0 0 0 0 0 0 2 0 0 1 0 0 0 0 0 0 0 0 0 0 0 0 11 23 44 27
0 0 1 2 0 16 0 1 0 0 0 0 0 0 0 0 0 7 9 201 162 63 0 0 0 0 0 0 0 0 3 4 8 1 1 0 2 0 0 0 0 0 0 0 0 0 0 0 2
0 0 0 0 0 0 1 0 1 0 0 0 0 0 0 0 0 0 0 177 229 169 44 15 0 0 0 0 0 0 0 0 1 1 0 4 1 1 0 0 0 0 0 0 0 0 0 0 0

GFSSGP_con_mlcape_084.txt.gz
CAPE
0 0 0 0 0 0 0 0 0 0 0 0 0 0 0 0 0 0 763 1128 1281 1332 1290 1367 1247 1266 1329 1230 1105 934 901 918 935 849 856 790 882 759 723 698 895 962 930 763 540 518 523 452 285
0 0 0 0 0 0 0 0 0 0 0 0 0 0 0 0 507 771 1015 1381 1474 1368 1247 1432 1421 1290 1308 1276 1240 1230 1140 1139 1041 849 931 824 743 675 567 617 803 852 789 569 468 471 417 356 167
0 0 0 0 0 0 0 0 0 0 0 0 0 0 0 0 545 649 992 1384 1567 1394 1178 1181 1519 1492 1392 1336 1319 1316 1224 1117 1051 960 830 859 885 602 846 827 801 790 450 250 371 329 338 167 58
0 0 0 0 0 0 0 0 0 0 0 0 0 0 0 71 471 876 1017 1211 1449 1417 1217 1133 1240 1641 1524 1229 1358 1269 941 683 294 84 12 54 508 1059 1074 937 843 651 426 415 366 318 154 135 17
0 0 0 0 0 0 0 0 0 0 0 0 0 0 6 532 728 772 1101 1260 1344 1360 1167 1099 1147 1210 1246 1070 1032 854 665 393 117 9 0 35 163 652 958 778 739 635 450 362 257 227 118 52 0
0 0 0 0 0 0 0 0 0 0 0 0 0 0 54 561 514 734 804 954 1235 1279 1030 923 892 832 782 758 664 682 473 230 60 5 0 51 78 381 606 673 493 444 353 309 248 87 39 0 0
0 0 0 0 0 0 0 0 0 0 0 0 0 0 268 460 490 598 652 919 1109 1149 1003 760 666 614 520 270 62 104 71 95 43 2 7 68 10 277 348 405 437 371 267 194 47 3 1 0 0
0 0 0 0 0 0 0 0 0 0 0 0 0 0 43 421 679 753 787 759 639 732 886 759 540 479 320 304 164 36 24 0 8 0 0 133 51 164 321 396 406 264 109 34 12 0 0 0 0
0 0 0 0 0 0 0 0 0 0 0 0 0 0 0 440 681 686 507 475 417 337 459 796 629 493 272 85 55 2 3 8 0 0 4 15 0 112 173 291 282 155 13 8 0 0 0 0 0
0 0 0 0 0 0 0 0 0 0 0 0 0 0 123 446 547 276 247 179 364 310 309 419 776 716 452 159 21 1 8 7 6 0 0 20 128 104 207 202 163 69 0 0 0 0 0 0 0
0 0 0 0 0 0 0 0 0 0 0 0 0 0 170 403 213 121 236 255 387 331 397 418 683 675 614 420 44 6 14 0 0 5 1 86 114 141 149 86 42 3 0 0 0 0 0 0 0
0 0 0 0 0 0 0 0 0 0 0 0 0 0 90 39 9 29 100 330 453 426 500 448 636 423 394 387 146 12 8 0 0 97 129 98 96 87 40 5 4 0 0 0 0 0 0 0 0
0 0 0 0 0 0 0 0 0 0 0 0 0 0 0 0 0 12 10 181 362 461 478 478 464 420 258 138 62 53 1 0 9 51 86 80 52 40 8 5 0 0 0 0 0 0 0 0 0
0 0 0 0 0 0 0 0 0 0 0 0 0 0 0 0 1 0 15 266 354 374 390 351 299 102 57 15 1 2 2 0 29 50 59 31 18 2 2 2 0 0 0 0 0 0 0 0 0
0 0 0 0 0 0 0 0 0 0 0 0 0 0 0 0 0 0 0 187 289 263 232 183 84 0 0 0 0 0 12 16 25 74 62 32 11 1 0 0 0 0 0 0 0 0 0 0 0
0 0 0 0 0 0 0 0 0 0 0 0 0 0 0 0 0 0 21 156 236 218 206 82 20 0 0 0 0 0 1 5 18 10 7 21 11 0 0 0 0 0 0 0 0 0 0 0 0
0 0 0 0 0 0 0 0 0 0 0 0 0 0 0 0 0 0 26 73 134 175 91 49 3 0 0 0 0 1 2 3 2 4 1 6 13 0 0 0 0 0 0 0 0 0 0 0 0
0 0 0 0 0 0 0 0 0 0 0 0 0 0 0 0 0 0 0 37 57 63 23 13 0 1 0 0 1 1 0 0 2 2 2 4 2 0 0 0 0 0 0 0 0 0 0 0 0
0 0 0 0 0 0 0 0 0 0 0 0 0 0 0 0 0 0 0 17 9 45 3 0 0 1 0 0 0 2 3 1 1 2 2 2 7 3 0 0 0 0 0 0 2 0 0 0 0
0 0 0 0 0 0 0 0 0 0 0 0 0 0 0 0 0 0 0 10 11 25 3 0 0 2 4 0 0 0 2 2 1 1 1 0 0 0 1 0 0 0 0 2 9 5 0 0 1
0 0 0 0 0 0 0 0 0 0 0 0 0 0 0 0 0 0 0 4 2 11 0 0 0 1 1 1 3 1 2 1 0 1 0 0 0 0 1 0 6 12 12 2 9 5 0 2 0
0 0 0 0 0 0 0 0 0 0 0 0 0 0 0 0 0 0 0 0 8 7 0 0 0 2 2 2 2 0 1 2 2 1 1 0 0 0 0 2 1 10 20 25 15 3 2 2 0
0 0 0 0 0 0 0 3 0 0 0 0 0 0 0 0 0 0 0 0 10 0 0 0 0 0 0 6 1 0 2 1 1 0 0 0 0 0 0 1 3 7 41 30 11 0 0 0 0
0 0 0 0 1 1 0 0 0 0 0 0 0 0 0 0 0 0 0 0 2 0 0 0 0 0 0 4 2 1 2 1 0 0 0 0 0 0 0 0 0 1 23 26 0 2 5 10 2
0 0 0 3 3 0 0 0 0 0 0 0 0 0 0 0 0 0 0 0 0 0 0 0 0 0 0 5 3 1 0 0 0 0 0 0 0 0 0 0 0 0 1 3 6 15 20 14 3
0 0 0 1 0 0 0 0 0 0 0 0 0 0 0 0 0 14 4 0 0 0 0 0 0 0 0 0 5 0 1 0 1 0 0 0 0 0 0 0 0 0 0 0 0 11 20 31 29
0 0 0 0 0 0 0 0 0 1 0 0 0 0 0 0 0 11 31 0 0 0 0 0 0 0 0 0 3 4 3 2 0 0 0 0 0 0 0 0 0 0 0 17 17 26 24 43 54
0 0 0 0 0 0 0 24 25 0 0 0 0 0 0 0 0 9 62 65 13 0 0 0 0 0 0 0 0 2 4 4 1 0 0 0 0 0 0 0 0 0 1 4 15 32 42 43 52
0 0 0 0 0 1 5 22 10 0 0 0 0 0 0 0 0 25 122 172 63 9 0 0 0 0 0 0 0 0 1 1 1 0 0 0 0 0 0 0 0 0 0 0 0 2 6 9 19
0 0 0 0 0 3 0 0 0 0 1 0 0 0 0 0 0 0 138 111 64 1 0 0 0 0 0 0 0 0 1 1 0 0 1 2 0 0 0 0 0 0 0 0 0 0 0 0 1

GFSSGP_con_mlcape_087.txt.gz
CAPE
0 0 0 0 0 0 0 0 0 0 0 0 0 0 0 0 0 0 366 714 1016 991 1262 1185 1304 1318 1149 1112 1150 1232 982 991 1277 1440 1351 1246 1192 1147 1027 1098 1097 1055 841 779 811 741 724 621 481
0 0 0 0 0 0 0 0 0 0 0 0 0 0 0 0 362 462 669 1100 1087 1166 1253 1269 1328 1417 1338 1232 1180 1315 1296 1063 984 1125 1222 867 691 781 740 897 1121 903 835 866 858 810 684 497 372
0 0 0 0 0 0 0 0 0 0 0 0 0 0 0 0 428 433 707 1233 1255 1265 1305 1363 1374 1435 1400 1364 1295 1312 1309 1167 1136 1086 978 668 508 519 640 928 995 992 781 390 766 788 514 317 198
0 0 0 0 0 0 0 0 0 0 0 0 0 0 0 178 379 740 922 1230 1323 1285 1212 1453 1404 1407 1440 1464 1385 1303 1336 897 685 709 616 430 327 344 598 723 659 656 437 394 727 503 350 142 47
0 0 0 0 0 0 0 0 0 0 0 0 0 0 0 319 757 823 768 1064 984 1206 1076 1290 1580 1533 1514 1497 1305 1319 715 436 108 45 42 32 81 87 149 275 400 515 449 534 480 351 157 50 8
0 0 0 0 0 0 0 0 0 0 0 0 0 0 0 512 773 680 885 1086 1243 1140 1040 1161 1381 1530 1489 1455 1404 1041 561 222 26 4 12 0 0 0 21 164 314 470 424 494 341 248 43 19 3
0 0 0 0 0 0 0 0 0 0 0 0 0 0 3 468 426 696 970 1070 1217 1141 965 964 1047 1243 1302 1220 1076 763 636 228 54 61 22 10 21 20 3 144 276 354 334 308 308 178 10 2 0
0 0 0 0 0 0 0 0 0 0 0 0 0 0 0 244 552 621 775 818 1052 1040 829 753 709 693 705 662 670 667 334 255 172 103 44 94 56 0 1 75 151 218 337 282 225 33 0 0 0
0 0 0 0 0 0 0 0 0 0 0 0 0 0 0 244 538 474 448 466 615 779 750 607 599 457 449 269 94 69 40 27 43 63 80 107 19 34 4 42 79 177 231 226 116 5 0 0 0
0 0 0 0 0 0 0 0 0 0 0 0 0 0 0 275 559 486 319 92 182 193 380 558 517 367 345 294 177 53 7 1 11 41 93 127 37 149 35 16 72 117 145 107 31 0 0 0 0
0 0 0 0 0 0 0 0 0 0 0 0 0 0 13 252 500 451 249 41 84 172 129 372 629 434 333 189 35 0 0 0 5 24 30 79 35 143 98 104 123 92 59 30 1 0 0 0 0
0 0 0 0 0 0 0 0 0 0 0 0 0 0 0 42 233 337 121 38 129 160 128 230 511 478 380 158 0 0 0 0 0 15 36 44 58 32 74 111 80 41 0 0 0 0 0 0 0
0 0 0 0 0 0 0 0 0 0 0 0 0 0 0 0 61 232 88 112 158 234 196 232 387 425 374 366 103 2 0 0 0 26 24 37 45 39 110 51 19 3 3 0 0 0 0 0 0
0 0 0 0 0 0 0 0 0 0 0 0 0 0 0 0 2 24 12 87 215 261 259 207 338 317 269 244 92 11 1 0 0 44 44 62 85 72 66 2 1 0 0 0 0 0 0 0 0
0 0 0 0 0 0 0 0 0 0 0 0 0 0 0 0 0 0 5 22 164 253 247 183 204 157 155 85 23 19 4 1 0 27 61 77 85 35 21 1 0 0 0 0 0 0 0 0 0
0 0 0 0 0 0 0 0 0 0 0 0 0 0 0 0 0 0 0 28 141 222 213 96 86 29 1 10 0 2 6 3 11 29 66 69 17 16 3 0 0 0 0 0 0 0 0 0 0
0 0 0 0 0 0 0 0 0 0 0 0 0 0 0 0 0 0 1 30 121 178 107 46 17 0 0 0 0 1 0 3 5 28 51 38 3 0 0 0 0 0 0 0 0 0 0 0 0
0 0 0 0 0 0 0 0 0 0 0 0 0 0 0 0 0 0 1 43 90 110 38 21 0 0 0 0 0 0 3 2 16 6 3 22 6 0 0 0 0 0 0 0 0 0 0 0 1
0 0 0 0 0 0 0 0 0 0 0 0 0 0 0 0 0 0 0 63 116 89 50 9 0 0 0 0 0 4 0 5 3 2 1 2 4 0 0 0 0 0 0 0 0 0 0 0 0
0 0 0 0 0 0 0 0 0 0 0 0 0 0 0 0 0 0 1 89 124 82 53 2 0 0 0 0 0 0 0 2 3 1 2 2 2 0 0 0 0 0 0 0 0 0 0 0 0
0 0 0 0 0 0 0 0 0 0 0 0 0 0 0 0 0 0 12 80 79 46 45 7 0 0 0 0 1 0 1 1 0 0 1 2 2 1 0 0 0 0 0 0 1 0 0 0 0
0 0 0 0 0 0 0 0 0 0 0 0 0 0 0 0 0 0 0 48 40 33 27 10 0 0 0 0 0 0 0 1 1 0 1 0 0 1 0 0 0 0 0 0 7 9 8 6 7
0 0 0 0 0 0 0 0 0 0 0 0 0 0 0 0 0 0 20 40 6 17 17 3 0 0 0 0 0 0 0 0 0 0 0 2 0 0 0 0 0 0 0 0 12 24 26 25 15
0 0 0 0 0 0 0 0 0 0 0 0 0 0 0 0 0 0 2 2 0 0 4 0 0 2 0 0 0 0 0 0 0 0 0 0 1 0 0 0 0 0 2 0 9 26 14 10 9
0 0 0 0 0 0 0 0 0 0 0 0 0 0 0 0 0 0 0 0 0 1 3 0 1 0 1 4 3 0 0 0 1 1 0 1 0 0 0 0 0 0 0 0 8 20 31 6 0
0 0 0 0 0 0 0 0 0 0 0 0 0 0 0 0 0 0 0 0 0 10 2 0 0 0 0 1 2 0 0 0 1 0 0 0 0 0 0 0 0 0 0 2 4 0 12 25 7
0 0 0 0 0 0 0 0 0 0 0 0 0 0 0 0 0 0 0 0 4 10 6 0 0 0 0 0 1 0 1 0 0 0 0 0 0 0 0 0 0 0 0 0 7 9 0 1 4
0 0 0 1 0 0 0 0 25 11 0 0 0 0 0 0 0 0 0 1 1 23 6 0 0 0 0 0 0 0 0 0 0 0 0 0 0 0 0 0 0 0 0 0 0 0 6 0 1
0 0 0 0 0 1 0 0 22 4 0 1 0 0 0 0 0 37 7 0 1 1 0 0 0 0 0 0 0 0 0 2 2 0 1 1 0 0 0 0 0 0 0 0 3 3 6 4 9
0 0 0 1 0 4 0 0 6 0 0 0 0 0 0 0 6 36 53 11 0 0 0 0 0 0 0 0 0 0 0 3 3 1 0 0 0 1 0 0 0 0 0 0 0 0 6 1 8

GFSSGP_con_mlcape_090.txt.gz
CAPE
0 0 0 0 0 0 0 0 0 0 0 0 0 0 0 0 0 0 58 712 740 553 929 1005 1185 1178 1179 977 780 1134 1465 1663 1708 1623 1461 1414 1368 1269 1194 1238 1202 1149 1098 1036 1018 920 917 779 595
0 0 0 0 0 0 0 0 0 0 0 0 0 0 0 0 36 65 325 845 1054 803 998 1048 1245 1152 1169 1121 898 1070 1372 1453 1610 1696 1535 1108 1086 909 764 812 1117 1069 977 1076 935 1003 963 703 552
0 0 0 0 0 0 0 0 0 0 0 0 0 0 0 0 221 195 559 873 982 1025 1053 1093 1264 1169 1162 1217 1172 894 1421 1570 1663 1702 1158 988 960 846 825 710 958 871 984 959 1081 1084 853 593 410
0 0 0 0 0 0 0 0 0 0 0 0 0 0 0 8 117 469 743 1081 1011 1132 1110 1136 1303 1206 1222 1232 1213 1245 1055 1428 1532 1361 1054 943 800 690 573 710 651 731 701 912 943 1026 614 408 258
0 0 0 0 0 0 0 0 0 0 0 0 0 0 0 27 483 634 785 1118 934 1123 1083 1214 1323 1340 1318 1320 1191 1220 1157 1072 1064 905 740 618 541 465 369 421 331 357 429 591 845 675 436 240 119
0 0 0 0 0 0 0 0 0 0 0 0 0 0 0 77 463 621 1020 916 1076 980 958 1257 1380 1400 1411 1362 1006 945 708 702 737 592 406 218 103 77 140 231 170 179 300 610 617 452 285 138 63
0 0 0 0 0 0 0 0 0 0 0 0 0 0 0 60 501 600 637 845 992 906 893 1021 1272 1352 1321 1274 1050 677 506 436 363 181 25 12 0 1 7 18 32 165 360 445 449 299 169 75 29
0 0 0 0 0 0 0 0 0 0 0 0 0 0 0 2 420 599 790 932 1031 844 832 872 976 1113 1089 1087 897 592 364 133 27 33 89 32 3 3 108 22 11 114 245 342 278 117 69 17 1
0 0 0 0 0 0 0 0 0 0 0 0 0 0 0 48 356 530 537 649 800 800 727 690 807 745 848 837 782 611 452 163 43 94 182 119 61 94 48 52 57 119 99 171 125 13 18 5 0
0 0 0 0 0 0 0 0 0 0 0 0 0 0 0 199 288 236 296 265 357 547 542 621 586 411 319 257 396 366 290 192 103 135 103 128 130 36 33 38 94 68 92 131 13 0 0 6 0
0 0 0 0 0 0 0 0 0 0 0 0 0 0 0 80 236 227 226 195 89 194 293 435 482 262 162 155 39 22 11 0 0 0 26 105 63 42 30 46 107 73 75 41 0 0 0 0 0
0 0 0 0 0 0 0 0 0 0 0 0 0 0 0 0 120 95 161 155 55 28 102 225 326 310 151 92 63 33 1 0 0 0 7 82 47 73 64 14 63 91 56 0 0 0 0 0 0
0 0 0 0 0 0 0 0 0 0 0 0 0 0 0 0 11 169 240 168 28 9 30 92 210 303 158 82 26 9 0 0 0 0 2 40 50 57 115 47 81 58 11 0 0 0 0 0 0
0 0 0 0 0 0 0 0 0 0 0 0 0 0 0 0 0 30 126 191 30 8 30 33 99 189 81 100 107 34 0 1 0 0 0 11 60 68 91 92 62 23 3 0 0 0 0 0 0
0 0 0 0 0 0 0 0 0 0 0 0 0 0 0 0 1 0 0 82 52 31 67 56 55 95 109 117 76 41 5 0 0 0 5 13 4 58 54 59 6 3 0 0 0 0 0 0 0
0 0 0 0 0 0 0 0 0 0 0 0 0 0 0 0 0 0 0 1 34 50 178 86 18 38 22 30 35 19 3 9 4 0 22 28 35 30 22 6 3 0 0 0 0 0 0 0 0
0 0 0 0 0 0 0 0 0 0 0 0 0 0 0 0 0 0 0 0 8 34 193 90 0 0 2 0 0 2 4 6 9 2 15 37 13 2 2 1 0 0 0 0 0 0 0 0 0
0 0 0 0 0 0 0 0 0 0 0 0 0 0 0 0 0 0 0 0 0 27 140 51 0 0 1 0 0 2 1 5 8 7 30 34 2 3 1 0 0 0 0 0 0 0 0 0 0
0 0 0 0 0 0 0 0 0 0 0 0 0 0 0 0 0 0 0 0 1 24 136 26 0 1 1 0 0 3 1 1 1 3 4 19 22 0 0 0 0 0 0 0 0 0 0 0 0
0 0 0 0 0 0 0 0 0 0 0 0 0 0 0 0 0 0 0 0 8 68 108 18 0 0 0 0 0 0 2 2 2 4 1 4 0 1 0 0 0 0 0 0 0 0 0 0 0
0 0 0 0 0 0 0 0 0 0 0 0 0 0 0 0 0 0 0 0 36 85 76 15 0 1 1 1 1 0 0 0 1 0 3 2 1 1 0 0 0 0 0 0 0 0 0 0 0
0 0 0 0 0 0 0 0 0 0 0 0 0 0 0 0 0 0 0 0 42 86 32 9 1 0 1 0 1 1 0 1 0 0 1 2 2 2 3 0 0 0 0 0 0 0 0 0 0
0 0 0 0 0 0 0 0 0 0 0 0 0 0 0 0 0 0 0 0 22 69 19 9 2 2 1 0 0 0 0 1 1 0 2 0 1 2 2 0 0 0 0 0 0 0 5 0 0
0 0 0 0 0 0 0 0 0 0 0 0 0 0 0 0 0 0 0 0 15 28 3 8 4 0 1 1 1 0 0 0 0 1 0 0 0 2 3 2 0 0 0 0 0 0 13 18 11
0 0 0 0 0 0 0 0 0 0 0 0 0 0 0 0 0 0 0 0 1 14 0 1 6 0 0 1 0 0 0 0 0 0 0 1 0 0 2 2 1 0 0 0 0 0 4 9 35
0 0 0 0 0 0 0 0 0 0 0 0 0 0 0 0 0 0 0 0 0 5 0 0 7 0 0 1 0 0 0 0 0 0 0 1 0 0 0 1 1 0 0 0 0 0 10 14 0
0 0 0 0 0 0 0 0 0 0 0 0 0 0 0 0 0 0 0 0 0 1 0 0 3 0 0 2 0 0 1 0 0 0 0 1 0 0 0 0 0 0 0 0 0 0 0 2 2
0 0 0 0 0 0 0 0 1 0 0 0 0 0 0 0 0 0 0 0 1 0 0 0 1 0 0 1 1 1 2 0 0 1 2 0 0 0 0 0 0 0 0 0 0 0 0 3 3
0 0 0 0 0 0 0 0 4 0 0 0 0 0 2 1 78 0 0 0 0 0 0 1 0 0 1 0 0 0 1 0 1 0 0 0 0 0 0 0 0 0 0 0 0 0 0 0 1
0 0 0 0 0 0 2 0 0 0 0 0 0 1 2 2 1 0 0 0 0 1 2 3 4 0 2 1 0 1 1 1 2 1 0 0 0 0 0 0 0 0 0 0 0 0 0 0 0

GFSSGP_con_mlcape_093.txt.gz
CAPE
0 0 0 0 0 0 0 0 0 0 0 0 0 0 0 0 0 0 7 674 334 379 965 936 866 964 1030 977 1044 1221 1501 1823 1798 1663 1502 1429 1473 1453 1313 1246 1267 1275 1243 1237 1252 1251 1204 1047 857
0 0 0 0 0 0 0 0 0 0 0 0 0 0 0 0 0 2 71 831 449 530 914 1047 982 1014 1033 1097 1188 1338 1706 2013 1891 1765 1630 1615 1527 1389 1316 1292 1246 1207 1250 1293 1228 1251 1073 928 737
0 0 0 0 0 0 0 0 0 0 0 0 0 0 0 0 14 18 343 982 900 712 871 1047 968 970 987 1091 1186 1334 1410 1810 1903 1466 1365 1100 973 937 833 943 1139 1145 1175 1301 1308 1241 1056 845 595
0 0 0 0 0 0 0 0 0 0 0 0 0 0 0 0 96 256 663 1038 901 675 908 940 981 964 1028 1050 1092 1427 1186 1523 1744 1538 1141 1122 935 771 564 614 593 681 1141 1192 1171 1149 839 633 522
0 0 0 0 0 0 0 0 0 0 0 0 0 0 0 0 139 610 816 909 560 671 893 924 1082 986 1066 1064 1006 1129 1312 1449 1590 1590 1409 1198 1002 721 534 346 350 408 555 1056 1096 897 661 418 320
0 0 0 0 0 0 0 0 0 0 0 0 0 0 0 8 287 675 939 929 918 928 1021 1021 1173 1068 1104 1145 1118 1085 877 935 1011 1251 1140 983 778 530 388 341 218 161 251 450 986 663 475 301 190
0 0 0 0 0 0 0 0 0 0 0 0 0 0 0 0 487 824 1032 1069 1038 1126 1088 1169 1176 1075 1199 1214 1038 1019 865 762 885 799 809 638 432 278 145 116 83 213 209 421 674 507 333 228 106
0 0 0 0 0 0 0 0 0 0 0 0 0 0 0 0 576 750 942 976 1024 986 916 1017 1096 1133 1446 1252 977 826 716 700 641 600 382 188 61 31 39 60 78 32 138 374 544 332 247 152 30
0 0 0 0 0 0 0 0 0 0 0 0 0 0 0 0 607 676 382 588 760 729 765 877 907 958 1228 1081 912 793 605 539 401 266 54 0 7 14 30 41 22 56 46 228 365 228 173 54 4
0 0 0 0 0 0 0 0 0 0 0 0 0 0 0 0 215 615 222 208 547 616 613 781 816 973 986 924 868 648 515 301 185 158 155 130 125 134 108 183 134 4 18 110 214 158 80 23 3
0 0 0 0 0 0 0 0 0 0 0 0 0 0 0 0 18 397 461 390 256 487 504 598 688 608 766 541 659 503 360 239 71 21 128 315 358 203 134 273 105 71 36 78 152 78 74 11 0
0 0 0 0 0 0 0 0 0 0 0 0 0 0 0 0 0 19 229 453 392 344 283 440 568 367 349 277 289 201 225 194 79 86 166 277 82 132 138 93 170 96 67 48 76 110 18 0 0
0 0 0 0 0 0 0 0 0 0 0 0 0 0 0 0 0 0 164 469 333 333 295 250 388 446 206 53 4 24 127 76 53 7 6 89 0 135 172 94 204 96 10 1 33 23 0 0 0
0 0 0 0 0 0 0 0 0 0 0 0 0 0 0 0 0 0 32 188 210 278 147 193 230 284 183 45 3 17 32 13 1 1 0 22 19 98 154 111 122 72 7 0 8 12 0 0 0
0 0 0 0 0 0 0 0 0 0 0 0 0 0 0 0 0 0 0 10 202 227 135 80 125 170 124 64 9 1 23 6 0 1 2 4 65 85 159 97 76 39 3 1 0 0 0 0 0
0 0 0 0 0 0 0 0 0 0 0 0 0 0 0 0 0 0 0 0 129 189 147 96 47 39 80 41 7 1 11 3 1 2 3 3 2 57 60 74 21 8 1 0 0 0 0 0 0
0 0 0 0 0 0 0 0 0 0 0 0 0 0 0 0 0 0 0 0 0 64 177 125 49 7 13 1 2 0 2 9 10 10 8 9 25 24 57 70 7 2 2 0 0 0 0 0 0
0 0 0 0 0 0 0 0 0 0 0 0 0 0 0 0 0 0 0 0 0 5 122 173 29 0 0 1 0 1 4 12 13 17 10 15 20 26 20 2 2 2 2 0 0 0 0 0 0
0 0 0 0 0 0 0 0 0 0 0 0 0 0 0 0 0 0 0 0 0 0 50 137 0 0 0 0 1 3 1 5 16 21 26 8 1 2 2 2 2 2 1 0 0 0 0 0 0
0 0 0 0 0 0 0 0 0 0 0 0 0 0 0 0 0 0 0 0 0 0 19 52 0 0 0 2 2 1 1 1 7 9 5 4 0 0 0 0 1 0 0 0 0 0 0 0 0
0 0 0 0 0 0 0 0 0 0 0 0 0 0 0 0 0 0 0 0 0 0 0 9 0 0 1 1 1 2 4 1 4 9 8 2 0 0 0 0 0 0 0 0 0 0 0 0 0
0 0 0 0 0 0 0 0 0 0 0 0 0 0 0 0 0 0 0 0 0 0 60 10 0 0 2 0 1 2 0 2 3 1 4 0 1 0 1 0 0 0 0 0 0 0 0 0 2
0 0 0 0 0 0 0 0 0 0 0 0 0 0 0 0 0 0 0 0 0 0 97 11 1 3 3 0 0 1 1 0 5 1 0 4 2 2 1 0 0 0 0 0 0 0 0 1 7
0 0 0 0 0 0 0 0 0 0 0 0 0 0 0 0 0 0 0 0 0 57 108 7 1 1 4 1 1 1 0 0 7 2 0 2 1 1 1 1 0 0 0 0 0 0 0 0 9
0 0 0 0 0 0 0 0 0 0 0 0 0 0 0 0 0 0 0 0 0 60 42 17 1 0 2 3 3 0 0 1 4 0 0 2 1 2 2 2 2 1 0 0 0 0 0 0 1
0 0 0 0 0 0 0 0 0 0 0 0 0 0 0 0 0 0 0 0 0 96 43 23 5 0 1 3 3 1 2 2 6 1 0 1 0 1 1 2 2 1 0 0 0 0 0 0 0
0 0 0 0 0 0 0 0 0 0 0 0 0 0 0 0 0 0 0 0 0 90 61 24 7 1 3 2 2 1 2 3 3 0 0 0 0 0 2 2 2 0 0 0 0 0 0 0 0
0 0 0 0 0 0 0 0 0 0 0 0 0 0 0 1 0 1 0 0 2 120 24 4 2 3 2 2 0 1 2 0 3 0 0 0 0 2 0 0 2 3 0 0 0 0 0 0 0
0 0 0 0 0 0 0 0 16 0 4 6 9 0 0 1 3 3 0 0 28 73 2 1 2 2 4 2 2 5 3 1 2 1 0 0 0 3 4 3 0 1 2 2 1 0 0 0 0
0 0 0 0 0 0 0 0 0 1 0 8 1 5 0 0 2 5 3 40 44 9 2 3 2 2 1 1 1 2 2 0 2 3 1 2 2 1 1 2 2 2 3 5 3 0 0 0 0

GFSSGP_con_mlcape_096.txt.gz
CAPE
0 0 0 0 0 0 0 0 0 0 0 0 0 0 0 0 0 0 62 676 802 826 1349 946 831 881 1000 1066 1072 1069 1273 1562 1420 1269 1165 1181 1632 1656 1581 1493 1350 1358 1422 1409 1367 1363 1308 1218 988
0 0 0 0 0 0 0 0 0 0 0 0 0 0 0 0 0 28 364 840 467 702 1091 1318 827 901 989 1092 1140 1138 1571 1695 1672 1597 1236 1534 1686 1668 1579 1482 1337 1413 1436 1475 1547 1534 1342 1130 926
0 0 0 0 0 0 0 0 0 0 0 0 0 0 0 0 0 0 313 1090 754 856 1105 1289 848 893 990 1092 1092 1168 1546 1870 1873 1869 1594 1326 1313 1328 1335 1451 1378 1342 1544 1430 1513 1426 1238 958 810
0 0 0 0 0 0 0 0 0 0 0 0 0 0 0 0 50 251 767 1086 697 1021 1110 1146 825 820 941 1069 1181 1141 1630 1933 1946 1614 1347 1091 933 867 784 731 1015 1197 1195 1109 1161 1174 1025 802 648
0 0 0 0 0 0 0 0 0 0 0 0 0 0 0 15 364 714 997 1305 863 1213 1274 1258 762 870 910 981 1179 1185 1200 1623 1797 1616 1373 1173 1060 939 666 669 659 429 378 581 921 1066 810 629 465
0 0 0 0 0 0 0 0 0 0 0 0 0 0 0 96 424 1004 1359 1314 1233 1431 1503 1421 902 900 915 914 992 1184 1030 1265 1054 1281 1270 1120 1055 799 645 539 456 264 277 207 370 670 660 449 306
0 0 0 0 0 0 0 0 0 0 0 0 0 0 0 37 644 1283 1497 1544 1635 1837 1543 1418 1376 1094 949 977 1004 906 1036 1116 1016 1160 1242 1206 930 675 506 346 268 194 72 45 112 270 418 282 223
0 0 0 0 0 0 0 0 0 0 0 0 0 0 0 11 1145 1518 1554 1773 1637 1877 1873 1356 1363 1321 1463 1467 1009 1036 886 857 830 851 859 739 684 510 435 205 112 85 141 136 155 174 226 195 141
0 0 0 0 0 0 0 0 0 0 0 0 0 0 0 1 1224 1431 1388 1464 1460 1574 1571 1295 1372 1458 1694 1734 1284 933 898 786 701 692 536 417 761 548 315 240 173 111 207 116 52 108 144 133 93
0 0 0 0 0 0 0 0 0 0 0 0 0 0 0 36 707 1057 1014 823 1084 1215 1193 1238 1403 1435 1502 1536 1598 1348 1281 1012 1046 894 580 707 731 619 279 110 8 14 39 42 56 133 71 128 165
0 0 0 0 0 0 0 0 0 0 0 0 0 0 0 0 0 175 639 838 1011 1289 1170 1003 1248 1393 1530 1338 1347 1182 1051 892 718 810 658 661 632 431 276 318 394 274 104 71 42 76 97 186 192
0 0 0 0 0 0 0 0 0 0 0 0 0 0 0 0 0 0 0 324 891 1130 1149 873 1011 1147 1261 1211 1041 901 803 578 392 381 665 711 717 654 525 428 432 236 151 129 130 11 94 162 153
0 0 0 0 0 0 0 0 0 0 0 0 0 0 0 0 0 0 0 7 442 1001 1055 935 804 951 1062 1033 817 789 719 545 545 178 269 345 385 324 407 439 287 241 171 166 109 21 120 161 119
0 0 0 0 0 0 0 0 0 0 0 0 0 0 0 0 0 0 0 0 189 695 1067 1094 715 754 895 785 579 432 437 558 455 327 215 227 319 367 364 267 234 180 163 101 98 89 114 121 83
0 0 0 0 0 0 0 0 0 0 0 0 0 0 0 0 0 0 0 0 45 453 816 1200 728 728 680 698 384 454 246 481 317 137 90 86 290 197 106 171 172 109 58 72 50 99 119 77 76
0 0 0 0 0 0 0 0 0 0 0 0 0 0 0 0 0 0 0 0 0 134 635 908 842 455 518 579 168 144 223 129 147 57 57 36 87 120 94 96 189 65 20 24 28 63 83 85 85
0 0 0 0 0 0 0 0 0 0 0 0 0 0 0 0 0 0 0 0 0 30 471 842 907 421 467 421 183 78 155 2 92 58 39 116 70 50 85 119 107 15 7 1 14 73 82 80 58
0 0 0 0 0 0 0 0 0 0 0 0 0 0 0 0 0 0 0 0 0 0 206 719 935 572 269 220 93 65 151 4 87 128 51 115 42 23 34 47 16 1 2 2 3 37 59 70 58
0 0 0 0 0 0 0 0 0 0 0 0 0 0 0 0 0 0 0 0 0 0 0 485 915 613 195 78 41 28 54 1 12 75 22 75 23 3 10 53 27 2 2 1 0 66 64 40 58
0 0 0 0 0 0 0 0 0 0 0 0 0 0 0 0 0 0 0 0 0 0 0 318 784 327 226 191 151 44 2 5 14 24 14 35 10 0 9 30 2 2 2 2 2 64 41 9 13
0 0 0 0 0 0 0 0 0 0 0 0 0 0 0 0 0 0 0 0 0 0 0 185 692 135 203 378 156 9 3 2 15 14 1 0 1 2 1 2 2 2 2 2 11 21 24 16 19
0 0 0 0 0 0 0 0 0 0 0 0 0 0 0 0 0 0 0 0 0 0 8 133 582 2 138 249 141 26 0 0 8 1 11 3 3 1 0 0 2 1 2 1 0 10 14 8 15
0 0 0 0 0 0 0 0 0 0 0 0 0 0 0 0 0 0 0 0 0 0 89 200 217 3 26 47 242 17 2 0 10 4 19 6 3 3 1 2 2 3 1 0 1 4 2 23 25
0 0 0 0 2 0 0 0 0 0 0 0 0 0 0 0 0 0 0 0 0 0 197 433 4 3 12 47 69 20 0 0 15 6 13 2 1 1 1 1 0 0 1 0 0 0 0 4 52
0 1 1 10 5 0 0 0 0 0 0 0 0 0 0 0 0 0 0 0 0 6 358 351 3 11 9 7 8 0 0 0 14 8 10 2 1 1 1 2 2 0 0 0 0 0 0 2 24
3 3 12 0 0 0 0 0 0 0 0 4 2 0 2 0 0 0 0 0 0 5 387 229 3 50 23 4 2 0 0 0 15 3 7 5 2 2 2 2 3 0 1 0 0 0 0 0 0
15 7 1 0 0 0 0 0 0 0 4 0 1 4 3 0 0 0 0 0 17 0 414 162 31 178 12 9 3 1 1 0 7 8 3 18 8 2 1 2 1 1 0 0 0 0 0 0 0
20 3 1 0 0 0 0 0 17 11 10 1 0 2 3 0 0 0 0 0 0 10 395 57 29 38 7 1 1 2 1 0 2 13 9 4 19 3 3 3 2 2 2 3 0 0 0 0 0
0 3 3 2 0 0 0 4 18 14 1 5 9 6 0 0 0 0 1 0 3 112 334 27 15 8 5 5 1 4 2 1 2 9 9 2 0 3 3 4 2 2 1 1 1 0 0 0 0
8 6 0 1 0 0 0 1 13 0 0 4 4 1 0 0 0 0 2 3 4 38 0 6 11 4 3 1 0 3 1 2 4 6 12 1 0 0 1 5 2 2 1 1 0 0 0 0 0

GFSSGP_con_mlcape_099.txt.gz
CAPE
0 0 0 0 0 0 0 0 0 0 0 0 0 0 0 0 0 1 4 335 33 626 1278 833 637 773 908 1016 1075 1268 1564 1446 1298 1142 1121 1119 1365 1350 1575 1641 1623 1597 1661 1595 1465 1394 1328 1144 1057
0 0 0 0 0 0 0 0 0 0 0 0 0 0 0 0 0 11 120 247 198 534 1190 1264 679 827 938 1016 1046 1146 1448 1643 1395 1223 1146 1167 1329 1093 1439 1622 1706 1707 1689 1560 1476 1512 1374 1183 935
0 0 0 0 0 0 0 0 0 0 0 0 0 0 0 0 0 0 125 362 248 547 932 1434 688 834 894 979 959 1092 1392 1664 1626 1481 1389 1318 1312 1109 1196 1190 1266 1482 1656 1452 1468 1415 1261 1041 858
0 0 0 0 0 0 0 0 0 0 0 0 0 0 0 0 0 0 494 464 340 731 789 1096 647 807 906 986 973 1039 1475 1677 1595 1602 1536 1138 1066 1063 932 797 680 992 904 1023 884 1142 1138 948 847
0 0 0 0 0 0 0 0 0 0 0 0 0 0 0 0 10 50 563 460 397 733 1043 1307 634 721 909 943 1055 1013 1328 1627 1684 1671 1367 1125 1093 711 782 679 569 392 167 238 272 697 857 693 566
0 0 0 0 0 0 0 0 0 0 0 0 0 0 0 0 16 357 779 795 764 1110 1439 1389 759 727 855 877 954 1089 1068 1302 1168 1276 1343 1162 1018 900 717 748 719 439 315 260 291 270 534 323 352
0 0 0 0 0 0 0 0 0 0 0 0 0 0 0 0 36 559 1023 1182 1358 1628 1587 1667 1260 976 795 923 825 892 1008 956 1179 1384 1233 1197 1026 782 675 699 523 406 305 249 94 41 205 173 216
0 0 0 0 0 0 0 0 0 0 0 0 0 0 0 17 308 999 1228 1439 1670 2144 1938 1762 1670 1351 1349 1235 909 823 841 896 901 1025 1013 1005 914 744 615 494 443 262 203 52 9 7 93 127 122
0 0 0 0 0 0 0 0 0 0 0 0 0 0 0 0 689 1198 1329 1671 1624 1917 1995 1788 1683 1473 1458 1483 1419 908 815 706 726 816 841 828 1024 759 469 431 271 266 95 59 55 92 64 84 64
0 0 0 0 0 0 0 0 0 0 0 0 0 0 0 0 269 1123 1289 1358 1406 1685 1775 1656 1617 1568 1560 1547 1786 1533 1325 1141 966 950 946 729 626 898 673 370 193 336 102 82 94 65 53 47 65
0 0 0 0 0 0 0 0 0 0 0 0 0 0 0 0 1 361 664 793 1071 1374 1484 1578 1538 1662 1447 1282 1674 1562 1433 1309 1323 1129 1100 839 608 792 646 415 32 83 110 157 67 44 27 32 93
0 0 0 0 0 0 0 0 0 0 0 0 0 0 0 0 0 0 20 170 421 950 1354 1560 1506 1565 1532 1334 1220 1306 1370 1340 1261 1272 1045 774 675 694 554 470 475 613 461 163 173 157 56 16 105
0 0 0 0 0 0 0 0 0 0 0 0 0 0 0 0 0 0 0 0 1 428 1262 1742 1438 1508 1574 1276 1017 1154 1156 1065 967 834 1059 893 818 655 534 475 492 619 527 255 228 83 20 37 86
0 0 0 0 0 0 0 0 0 0 0 0 0 0 0 0 0 0 0 0 0 14 857 1722 1458 1359 1477 1335 1210 978 1072 885 968 642 572 721 860 706 626 514 492 585 345 375 146 56 1 30 63
0 0 0 0 0 0 0 0 0 0 0 0 0 0 0 0 0 0 0 0 0 0 254 1793 1584 1143 1389 1281 1096 809 691 615 685 786 727 330 436 409 377 575 458 445 267 226 170 32 3 61 77
0 0 0 0 0 0 0 0 0 0 0 0 0 0 0 0 0 0 0 0 0 0 13 1227 1654 1004 1182 1230 1030 770 642 585 564 656 765 528 529 268 64 156 183 321 191 204 140 46 43 60 69
0 0 0 0 0 0 0 0 0 0 0 0 0 0 0 0 0 0 0 0 0 0 0 677 1681 1470 1041 1006 1029 772 715 638 512 426 423 511 387 366 187 139 298 253 94 118 85 51 55 44 45
0 0 0 0 0 0 0 0 0 0 0 0 0 0 0 0 0 0 0 0 0 0 0 249 1309 1597 1160 846 869 436 371 279 484 521 168 99 194 192 184 88 93 95 34 40 30 46 41 39 48
0 0 0 0 0 0 1 0 0 0 0 0 0 0 0 0 0 0 0 0 0 0 0 167 970 1485 1177 727 659 433 437 163 326 291 238 126 140 78 42 18 12 3 11 8 14 23 30 35 76
0 0 0 0 0 2 1 0 0 0 0 0 0 0 0 0 0 0 0 0 0 0 0 0 518 1237 1222 593 583 510 400 320 443 219 98 46 115 107 28 11 12 2 7 2 7 16 23 39 46
1 0 0 0 0 0 8 0 0 0 0 0 0 0 0 0 0 0 0 0 0 0 0 0 30 786 1186 763 700 647 589 261 266 149 137 53 123 32 9 9 9 2 2 2 0 7 32 41 29
1 3 0 0 0 0 0 0 0 0 0 0 0 0 0 0 0 0 0 0 0 0 0 0 0 461 1018 866 843 807 431 242 46 56 10 15 4 1 1 2 4 10 1 2 2 12 25 32 32
0 0 0 0 0 0 0 0 0 0 0 0 0 0 1 8 5 3 0 0 0 0 0 0 10 466 726 875 944 819 648 325 48 0 5 0 2 1 1 1 1 2 3 2 3 28 32 50 56
0 0 0 1 0 0 0 0 0 0 0 0 7 14 17 18 10 4 1 0 0 0 0 0 250 914 576 633 1002 816 697 377 11 0 7 9 2 3 1 2 1 2 2 3 3 55 63 74 57
0 0 0 0 0 0 0 1 0 3 23 5 8 14 16 18 1 0 0 0 0 0 0 0 470 851 354 334 801 924 761 324 8 0 5 2 2 2 2 2 2 3 4 2 13 33 59 56 35
0 0 5 3 5 0 0 0 0 36 13 16 13 25 20 20 3 0 0 0 0 0 0 58 693 420 32 138 801 839 693 224 5 0 4 4 2 1 2 2 0 0 0 2 0 3 1 14 25
0 0 0 0 0 2 0 33 48 32 60 28 16 18 3 4 1 0 0 0 0 0 14 204 623 60 13 55 694 741 515 104 1 0 5 1 5 2 1 3 2 2 1 0 0 0 0 0 7
0 0 0 8 1 0 3 0 9 32 22 9 11 17 5 4 0 0 0 0 0 0 1 450 303 140 22 60 199 389 381 12 8 0 1 5 22 3 3 3 2 2 3 3 3 2 1 0 1
33 45 28 23 27 29 0 41 54 1 1 10 11 6 2 1 0 0 0 1 1 0 134 643 211 102 22 35 23 49 209 12 6 8 7 5 9 4 2 2 2 2 2 1 1 1 0 0 0
27 43 17 22 17 4 7 29 0 0 5 12 4 6 4 1 0 0 2 2 1 2 7 126 56 19 2 0 4 8 13 9 3 9 8 2 13 27 8 4 3 2 2 2 1 3 0 0 0

GFSSGP_con_mlcape_102.txt.gz
CAPE
0 0 0 0 0 0 0 0 0 0 0 0 0 0 0 0 0 31 2 237 1110 402 86 276 285 458 657 906 1051 1354 1349 1259 1277 1197 1060 1002 1132 1292 1455 1508 1499 1546 1500 1621 1478 1264 1291 1170 939
0 0 0 0 0 0 0 0 0 0 0 0 0 0 0 0 0 70 71 124 1075 1053 505 303 285 510 733 899 998 1206 1517 1473 1351 1087 1039 936 1055 1253 1463 1556 1532 1438 1385 1513 1529 1480 1376 1155 943
0 0 0 0 0 0 0 0 0 0 0 0 0 0 0 0 0 30 99 283 604 1226 1101 601 381 521 669 796 968 1038 1357 1576 1422 1134 1185 1083 999 1231 1385 1329 1393 1141 1029 1194 1296 1338 1349 1045 907
0 0 0 0 0 0 0 0 0 0 0 0 0 0 0 0 0 156 137 201 537 939 1573 873 325 408 588 757 827 968 1294 1433 1498 1277 1234 1064 924 1032 1039 889 796 605 385 493 612 875 920 946 867
0 0 0 0 0 0 0 0 0 0 0 0 0 0 0 0 0 321 183 244 756 1180 1383 789 300 510 668 814 790 827 1195 1464 1597 1362 1224 1113 1052 975 935 936 583 442 231 134 155 229 360 504 712
0 0 0 0 0 0 0 0 0 0 0 0 0 0 0 0 0 451 461 441 861 1500 1604 684 526 610 652 806 774 685 994 1245 1288 1341 1315 1240 1112 945 607 588 494 402 177 1 0 79 58 162 232
0 0 0 0 0 0 0 0 0 0 0 0 0 0 0 0 9 381 734 722 1201 1587 1747 972 711 732 742 708 741 693 729 942 1104 1207 1265 1253 1112 832 570 703 625 420 194 68 309 81 35 27 100
0 0 0 0 0 0 0 0 0 0 0 0 0 0 0 26 46 587 1135 1384 1686 1872 2009 1657 1353 974 914 857 729 667 707 676 764 947 1144 1151 999 854 731 696 559 439 351 321 72 40 13 38 55
0 0 0 0 0 0 0 0 0 0 0 0 0 0 0 35 688 983 1204 1703 2043 2080 1989 2011 1907 1533 1475 1420 918 684 564 516 524 648 1007 1049 899 766 615 613 489 367 314 207 7 0 5 19 23
0 0 0 0 0 0 0 0 0 0 0 0 0 0 0 1 616 1094 1291 1766 1987 2313 2155 2002 1884 1753 1764 1462 1215 1087 1016 698 552 749 872 1050 684 703 551 407 273 216 211 35 2 24 14 38 6
0 0 0 0 0 0 0 0 0 0 0 0 0 0 0 0 4 841 1088 1487 1826 1933 2169 1862 1777 1851 1907 1452 1717 1437 1368 1236 1065 972 941 1067 622 745 489 190 248 116 59 57 76 71 36 27 1
0 0 0 0 0 0 0 0 0 0 0 0 0 0 0 0 0 27 511 896 1397 1543 1946 1943 1752 1966 1657 1982 1767 1542 1296 1163 1016 1233 1134 978 656 618 449 300 246 285 152 177 106 98 62 6 0
0 0 0 0 0 0 0 0 0 0 0 0 0 0 0 0 0 0 0 47 498 1075 1560 1711 1704 1730 1810 1724 1208 1235 1188 1305 986 1164 1122 837 677 737 559 417 257 238 221 244 126 103 52 20 4
0 0 0 0 0 0 0 0 0 0 0 0 0 0 0 0 0 0 0 0 0 456 1287 1719 1750 1668 1754 1849 1405 1161 955 857 1032 819 1099 1178 701 646 529 348 308 344 324 290 204 168 96 23 23
0 0 0 0 0 0 0 0 0 0 0 0 0 0 0 0 0 0 0 0 0 0 1319 1709 1827 1458 1534 1834 1646 1180 763 1002 1019 783 855 1005 946 793 449 343 320 420 317 436 241 98 93 10 48
0 0 0 0 0 0 0 0 0 0 0 0 0 0 0 0 0 0 0 0 0 0 228 1824 1947 1487 1218 1837 1619 1207 767 939 959 760 680 593 647 610 553 459 359 331 304 241 137 55 61 19 33
0 0 0 0 0 0 0 0 0 0 0 0 0 0 0 0 0 0 0 0 0 0 0 1645 1835 1332 1092 1556 1620 1294 877 659 659 680 746 757 562 520 422 331 283 113 170 205 171 80 0 6 31
0 0 0 0 0 0 0 0 0 0 0 0 0 0 0 0 0 0 0 0 0 0 0 1705 1815 1432 1065 1025 1532 1200 1151 670 610 582 523 317 466 417 419 277 164 71 174 143 163 58 47 21 27
0 0 3 0 0 0 1 0 0 0 0 0 0 0 0 0 0 0 0 0 0 0 0 1360 1930 1867 1359 851 868 889 757 563 302 457 531 359 217 182 167 168 82 89 152 74 106 50 51 38 31
0 4 15 0 0 2 0 0 4 0 0 0 0 0 0 0 0 0 0 0 0 0 0 0 1586 2075 1605 1052 805 565 392 278 192 263 439 240 240 236 131 46 27 65 51 56 56 38 14 30 7
0 0 0 1 0 0 0 0 0 0 0 0 0 0 0 0 0 0 0 0 1 1 0 0 86 1735 1751 1242 695 558 412 395 169 421 342 476 164 80 96 28 0 4 13 16 24 21 8 12 2
5 20 93 37 0 0 1 0 0 0 0 0 0 0 0 0 0 0 0 0 0 0 0 0 0 287 1698 1164 663 643 620 507 360 399 250 380 204 143 34 3 4 2 4 2 9 29 10 7 9
9 23 58 12 0 0 0 0 0 0 0 0 0 1 6 15 3 0 0 0 0 0 0 0 0 0 1292 1128 895 754 866 657 412 296 235 148 22 0 1 0 2 0 2 4 13 17 31 29 2
19 18 0 0 0 1 0 0 0 0 0 0 1 18 23 6 0 0 0 0 0 0 0 4 0 0 1044 1304 1013 967 1027 696 473 288 178 14 0 2 1 1 1 7 2 5 2 2 7 23 13
39 9 0 0 0 0 0 0 0 0 0 4 48 57 26 1 0 0 0 0 0 0 0 0 0 35 1085 1267 1141 1238 1125 922 555 114 12 0 0 0 1 2 1 1 2 2 3 8 6 8 17
0 0 0 0 0 0 0 0 1 5 37 14 79 31 1 0 0 0 0 0 0 0 0 0 0 201 1004 953 1040 1174 1014 1005 471 9 75 13 0 3 0 1 4 3 2 1 6 15 3 13 21
0 0 8 7 0 1 0 0 0 4 8 43 16 0 0 0 0 0 0 0 0 0 0 0 0 280 664 578 459 995 1061 916 271 58 104 3 1 2 1 0 1 0 3 0 0 0 0 4 19
0 0 0 0 0 0 0 1 8 9 0 6 0 0 0 0 0 0 0 0 1 0 1 0 1 533 307 205 137 488 932 760 170 36 33 15 0 2 1 1 1 0 0 0 0 1 1 12 14
0 0 1 1 0 0 0 2 3 0 0 4 0 0 0 0 0 0 0 0 1 1 3 1 265 320 152 69 16 200 686 351 88 59 35 10 0 2 0 0 1 1 0 1 1 1 1 0 1
4 9 0 1 1 9 0 1 0 13 29 1 0 0 0 1 2 2 1 1 0 3 6 5 4 138 122 12 11 134 171 83 39 110 27 31 17 0 1 2 1 1 1 1 2 1 0 0 0

GFSSGP_con_mlcape_105.txt.gz
CAPE
0 0 0 0 0 0 0 0 0 0 0 0 0 0 0 0 2 7 674 178 0 0 209 430 304 476 724 954 1081 1033 1029 1091 1117 1045 811 847 942 1163 1273 1330 1447 1569 1534 1585 1375 1347 1310 1137 926
0 0 0 0 0 0 0 0 0 0 0 0 0 0 0 2 40 398 548 189 0 0 163 277 292 371 608 764 948 1111 1205 1248 1237 1126 931 952 979 1075 1152 1353 1492 1557 1408 1297 1251 1466 1165 835 857
0 0 0 0 0 0 0 0 0 0 0 0 0 0 0 0 53 98 710 613 0 48 176 274 301 336 495 742 803 1013 1306 1389 1333 1142 1048 1039 1031 1113 1119 1278 1122 812 684 645 735 1137 763 798 802
0 0 0 0 0 0 0 0 0 0 0 0 0 0 0 5 178 363 917 940 623 703 184 151 167 291 548 718 741 838 1217 1435 1399 1155 1131 1034 1055 849 993 867 708 533 342 303 338 369 577 591 649
0 0 0 0 0 0 0 0 0 0 0 0 0 0 0 1 175 322 549 1008 903 1136 773 308 245 347 540 690 763 919 1033 1230 1424 1254 1135 1045 1071 848 732 815 585 279 73 164 220 201 282 381 596
0 0 0 0 0 0 0 0 0 0 0 0 0 0 0 96 153 215 548 997 1312 1186 864 432 464 423 519 648 718 802 1000 1205 1430 1423 1271 1171 1039 865 811 737 501 49 0 35 107 4 1 74 244
0 0 0 0 0 0 0 0 0 0 0 0 0 0 0 270 185 282 654 1174 1315 1208 812 330 578 559 597 643 635 634 829 944 1039 1186 1308 1288 1074 875 514 635 459 144 48 6 22 0 2 23 103
0 0 0 0 0 0 0 0 0 0 0 0 0 0 0 21 394 518 977 1280 1446 1332 956 209 393 524 498 600 627 554 524 599 757 951 1102 1233 1109 860 507 509 499 273 86 0 8 22 23 5 43
0 0 0 0 0 0 0 0 0 0 0 0 0 0 101 462 631 917 1203 1292 1573 1612 1414 904 496 438 454 525 557 556 511 415 435 619 949 1023 900 732 541 569 567 332 79 111 242 53 0 0 23
0 0 0 0 0 0 0 0 0 0 0 0 0 0 100 686 897 1175 1279 1355 1536 1609 1689 1535 1167 862 1028 884 595 486 463 294 260 370 799 896 773 665 542 547 502 343 170 226 85 26 0 0 6
0 0 0 0 0 0 0 0 0 0 0 0 0 0 0 190 954 1127 1530 1611 1735 1831 1771 1835 1729 1434 1514 1295 737 611 574 381 278 414 556 788 591 475 416 381 351 287 197 59 4 0 0 0 0
0 0 0 0 0 0 0 0 0 0 0 0 0 0 0 0 26 661 1077 1709 1826 2033 1951 1856 1660 1625 1717 1486 1066 1001 970 790 563 546 586 573 310 355 200 210 158 65 86 0 0 0 0 0 0
0 0 0 0 0 0 0 0 0 0 0 0 0 0 0 0 0 0 282 1015 1748 1889 1985 1824 1628 1646 1685 1680 1425 1154 1099 959 829 832 802 544 328 387 197 114 99 50 32 0 0 0 2 0 0
0 0 0 0 0 0 0 0 0 0 0 0 0 0 0 0 0 0 0 1 1045 1787 1842 1820 1642 1424 1579 1808 1451 1247 1230 976 755 792 843 673 499 417 311 178 152 96 25 10 0 15 10 3 0
0 0 0 0 0 0 0 0 0 0 0 0 0 0 0 0 0 0 0 0 0 1009 1773 1720 1614 1334 1657 1537 1305 1050 1057 952 801 845 966 655 511 494 358 203 112 86 77 109 81 47 16 2 1
0 0 0 0 0 0 0 0 0 0 0 0 0 0 0 0 0 0 0 0 0 0 1450 1669 1598 1408 1547 1485 1421 1028 736 690 713 686 574 921 712 495 326 221 130 128 107 100 60 59 43 13 1
0 0 0 0 0 0 0 0 0 0 0 0 0 0 0 0 0 0 0 0 0 0 846 1444 1613 1456 1301 1564 1450 1119 807 598 922 702 511 553 817 648 362 271 187 137 102 126 53 27 34 17 0
0 0 0 0 0 0 0 0 0 0 0 0 0 0 0 0 0 0 0 0 0 0 503 1363 1511 1455 1293 1337 1491 1218 912 649 733 764 513 438 393 482 519 383 315 131 76 109 77 24 3 27 6
0 0 3 0 0 2 60 28 0 0 0 0 0 0 0 0 0 0 0 0 0 0 647 1300 1414 1361 1199 926 1455 1189 935 546 432 518 615 617 432 404 369 321 232 130 81 62 93 33 11 1 9
0 0 0 0 0 76 34 26 0 0 0 0 0 0 0 0 0 0 0 0 0 0 48 1185 1314 1281 1188 732 1139 1099 912 620 493 301 379 377 361 248 249 219 146 83 71 48 62 37 11 6 17
0 0 0 0 58 76 38 2 0 0 0 0 0 0 0 0 0 0 0 0 0 0 0 1611 1397 1265 1112 939 745 739 533 450 297 166 173 229 185 212 96 37 65 35 42 42 70 34 18 5 14
0 0 0 0 28 35 12 0 0 0 0 0 0 0 0 0 0 0 0 0 0 0 0 0 1693 1438 1126 962 750 489 309 235 258 87 56 115 181 87 110 41 0 0 4 7 16 24 17 4 19
0 1 0 0 12 33 0 0 0 0 0 0 0 6 1 0 0 0 0 0 0 0 0 0 0 521 1230 1008 883 542 383 217 198 84 185 180 192 89 43 20 0 0 1 2 4 25 12 8 22
39 42 164 36 6 1 0 0 0 0 0 0 18 0 0 0 0 0 0 0 0 0 0 0 0 0 229 811 898 725 480 344 275 205 153 96 61 29 3 0 0 2 2 4 6 34 2 13 13
91 63 0 9 0 0 0 0 0 0 0 6 0 0 0 0 0 0 0 0 0 0 0 0 0 0 0 821 768 866 663 543 420 279 143 45 29 0 0 0 2 2 1 2 3 4 24 6 11
7 4 0 0 0 0 0 0 0 2 5 0 0 0 0 0 0 0 0 0 0 0 0 0 0 0 0 164 910 907 729 454 468 249 89 21 0 0 0 0 2 2 3 5 2 4 2 16 4
4 9 15 0 0 0 0 0 66 89 0 0 0 0 0 0 0 0 0 0 0 0 0 0 0 0 0 0 1108 954 890 731 463 116 72 0 0 0 1 2 1 3 2 1 2 4 1 4 5
0 0 0 0 0 0 0 0 11 5 1 2 0 0 0 0 0 0 0 0 0 0 0 1 3 1 0 122 948 787 726 717 384 85 32 0 0 0 0 1 1 3 1 1 0 1 3 3 2
0 0 0 4 0 0 0 0 5 5 5 2 1 0 0 1 0 2 2 1 1 1 2 3 6 5 0 437 496 357 451 486 134 48 11 12 0 0 0 1 1 0 0 0 0 0 1 3 3
1 0 1 0 0 0 0 0 6 4 2 1 3 3 0 0 0 0 1 2 2 3 3 4 7 9 4 0 19 6 110 213 47 20 23 5 0 0 2 1 1 0 0 0 0 0 0 0 0

GFSSGP_con_mlcape_108.txt.gz
CAPE
0 0 0 0 0 0 0 0 0 0 0 0 0 0 0 1 0 1 462 90 0 65 634 918 901 904 862 805 821 868 914 910 779 677 728 905 1054 1191 1364 1459 1677 1502 1198 1244 948 1051 960 1041 1031
0 0 0 0 0 0 0 0 0 0 0 0 0 0 0 0 268 626 582 94 10 29 472 805 877 886 911 819 846 962 1070 1081 937 812 808 881 1020 1138 1229 1420 1485 1176 856 934 783 939 925 930 944
0 0 0 0 0 0 0 0 0 0 0 0 0 0 0 0 457 608 170 0 52 17 261 592 744 742 796 779 929 1075 1204 1160 1052 949 909 946 1116 1179 1226 1140 969 835 778 881 899 790 665 727 832
0 0 0 0 0 0 0 0 0 0 0 0 0 0 0 29 377 464 27 6 0 9 209 570 627 641 697 724 940 1204 1314 1235 1138 1062 998 1009 1151 1184 1148 1027 704 551 579 573 552 516 587 699 783
0 0 0 0 0 0 0 0 0 0 0 0 0 0 0 98 292 392 35 0 0 19 176 475 639 642 658 715 895 1214 1325 1307 1195 1072 1053 1007 1077 1014 1031 780 509 414 387 412 434 474 434 467 510
0 0 0 0 0 0 0 0 0 0 0 0 0 0 0 76 574 752 220 0 111 0 125 337 632 606 714 746 800 929 1149 1333 1288 1155 1125 1107 978 1003 795 582 373 314 310 175 155 159 193 357 334
0 0 0 0 0 0 0 0 0 0 0 0 0 0 0 312 430 838 967 904 714 393 271 201 448 684 829 767 805 975 1071 1214 1327 1259 1193 1129 960 912 791 374 54 0 62 101 72 12 60 132 316
0 0 0 0 0 0 0 0 0 0 0 0 0 0 0 146 411 976 1222 1184 1068 820 432 168 354 695 732 750 723 868 936 1065 1209 1245 1203 1141 923 846 754 469 211 177 80 76 23 0 0 7 174
0 0 0 0 0 0 0 0 0 0 0 0 0 0 0 135 755 1121 1267 1305 1068 829 528 157 280 478 535 638 669 739 886 927 899 1053 1133 1135 921 803 661 533 221 51 32 23 7 10 15 8 67
0 0 0 0 0 0 0 0 0 0 0 0 0 0 73 475 772 921 1024 1028 1131 942 618 158 192 362 464 572 649 548 569 606 637 830 902 982 861 633 543 439 263 159 86 21 14 57 8 0 5
0 0 0 0 0 0 0 0 0 0 0 0 0 2 389 706 857 870 902 869 882 976 1186 877 319 370 531 578 449 406 420 319 338 597 803 809 673 504 480 485 414 279 100 112 167 96 6 0 7
0 0 0 0 0 0 0 0 0 0 0 0 0 23 372 737 839 903 951 1102 1223 1343 1370 1421 1011 784 1028 867 494 410 311 180 223 397 755 655 520 393 339 413 365 231 62 92 80 10 0 0 0
0 0 0 0 0 0 0 0 0 0 0 0 0 0 274 702 944 1032 1134 1259 1470 1480 1565 1590 1365 1158 1310 1309 782 597 496 359 241 312 605 537 414 328 272 281 219 135 56 48 20 0 0 0 0
0 0 0 0 0 0 0 0 0 0 0 0 0 0 0 277 689 822 1251 1459 1714 1776 1678 1647 1648 1426 1394 1616 1191 936 860 651 514 454 493 423 288 201 210 187 173 86 57 4 0 0 0 0 0
0 0 0 0 0 0 0 0 0 0 0 0 0 0 0 0 1 162 433 1315 1618 1843 1835 1693 1791 1612 1367 1662 1496 1157 1031 872 699 704 616 402 243 169 123 119 94 26 13 6 0 0 0 0 0
0 0 0 0 0 0 0 0 0 0 0 0 0 0 0 0 0 0 0 0 665 1386 1823 1837 1790 1694 1374 1458 1662 1263 1120 988 739 755 789 525 342 278 176 104 80 34 0 0 0 0 0 0 7
0 0 0 0 0 0 0 0 0 0 0 0 0 0 0 0 0 0 0 0 0 180 1065 1607 1787 1608 1530 1293 1590 1214 1137 1067 729 621 720 634 433 346 269 182 96 87 39 0 3 8 1 1 2
0 0 0 0 0 0 0 0 0 0 0 0 0 0 0 0 0 0 0 0 0 0 160 806 1279 1566 1516 1292 1253 1021 880 815 780 724 638 558 591 332 278 172 94 39 13 7 39 64 10 0 12
1 0 0 0 0 0 0 0 0 0 0 0 0 0 0 0 0 0 0 0 0 0 0 411 886 1436 1414 1312 1229 1157 1013 688 678 570 587 425 547 543 291 190 107 40 36 26 17 8 8 3 4
0 5 0 0 0 0 0 0 0 0 0 0 0 0 0 0 0 0 0 0 0 0 0 21 531 1138 1412 1473 1381 1261 991 713 604 594 753 492 295 395 505 315 156 46 17 3 15 6 1 2 3
0 0 0 0 0 0 0 0 0 0 0 0 0 0 0 0 0 0 0 0 0 0 173 1258 1309 1145 1342 1466 1319 917 687 621 578 502 498 490 382 277 215 205 193 133 91 31 12 5 0 1 2
0 0 4 0 0 0 0 0 10 2 0 0 0 0 5 0 0 0 0 0 0 0 0 2 1429 1304 1142 946 1141 968 814 801 687 501 284 353 421 350 201 94 61 46 53 61 1 2 1 0 0
0 0 0 19 0 0 0 1 0 41 25 27 11 0 0 0 0 0 0 0 0 0 0 0 0 0 219 819 843 869 897 746 387 281 242 205 177 159 172 71 27 1 21 3 4 3 3 1 7
4 0 2 11 0 0 0 0 0 16 25 184 0 0 0 0 0 0 0 0 0 0 0 0 0 0 0 10 765 833 702 522 353 198 165 33 34 28 93 51 26 16 2 0 1 3 3 9 26
0 0 0 0 3 0 0 2 0 128 189 29 0 0 0 0 0 0 0 0 0 0 0 0 0 0 0 0 14 732 581 414 359 226 119 42 28 24 45 44 28 0 1 1 2 7 30 42 17
0 0 0 0 0 0 3 0 11 2 4 2 1 0 0 0 0 0 0 0 0 0 0 0 0 0 0 0 0 260 692 404 291 216 151 80 36 31 2 6 0 0 0 0 3 14 15 24 2
0 0 4 1 1 0 2 23 3 2 3 3 3 0 0 1 0 0 0 0 0 0 0 3 1 0 1 0 0 0 711 460 469 312 162 94 44 11 0 0 0 0 0 2 3 9 11 1 5
0 1 1 0 0 0 7 11 0 2 1 1 2 6 4 4 0 1 3 4 3 2 2 3 0 2 4 2 0 0 690 502 408 245 197 107 21 0 0 0 0 0 4 1 3 5 2 5 1
0 1 3 4 2 0 0 0 1 1 1 1 1 2 4 3 1 2 1 1 2 2 2 4 2 3 6 6 2 61 476 302 220 204 98 44 6 0 0 0 0 1 0 1 2 2 7 2 1
3 9 1 0 0 0 5 0 0 0 2 2 3 3 3 3 3 3 2 2 3 3 3 3 6 4 5 7 4 3 2 80 56 97 14 7 17 0 0 0 0 1 1 0 5 1 1 3 1

GFSSGP_con_mlcape_111.txt.gz
CAPE
0 0 0 0 0 0 0 0 0 0 0 0 0 0 0 0 0 0 244 284 414 259 849 1012 945 996 1007 971 889 780 749 655 561 582 743 896 1079 1265 1413 1509 1437 1221 1192 1172 1088 1114 966 956 906
0 0 0 0 0 0 0 0 0 0 0 0 0 0 0 0 168 492 454 205 436 308 797 932 970 994 1015 995 976 953 908 767 674 705 857 985 1155 1379 1512 1482 1193 1044 978 1056 1092 1025 846 1000 950
0 0 0 0 0 0 0 0 0 0 0 0 0 0 0 0 307 514 347 157 278 472 680 744 959 998 1055 987 996 1054 1033 865 761 757 936 1057 1200 1411 1463 1408 1118 992 899 1130 1140 977 881 915 959
0 0 0 0 0 0 0 0 0 0 0 0 0 0 0 9 412 590 308 9 118 414 553 741 808 994 1084 1052 1017 1106 1057 981 877 823 913 1103 1214 1309 1418 1084 830 886 901 1071 912 776 713 798 912
0 0 0 0 0 0 0 0 0 0 0 0 0 0 0 42 528 387 16 5 0 187 412 596 787 926 1110 1123 1126 1194 1121 1093 1029 884 940 1125 1292 1347 1067 795 634 733 780 781 747 667 714 804 791
0 0 0 0 0 0 0 0 0 0 0 0 0 0 0 135 383 86 0 0 65 11 231 426 786 827 1012 1085 1138 1215 1213 1210 1105 975 956 1099 1242 1217 921 684 515 529 488 474 426 502 634 679 653
0 0 0 0 0 0 0 0 0 0 0 0 0 0 0 185 347 22 0 21 39 49 182 503 725 939 989 894 1054 1242 1331 1308 1157 1054 971 1070 1100 989 840 603 434 405 311 214 336 426 483 470 467
0 0 0 0 0 0 0 0 0 0 0 0 0 0 0 0 642 167 148 48 10 85 150 291 617 771 860 858 925 1111 1334 1350 1236 1104 1052 1073 1011 853 671 503 325 222 113 86 101 123 242 340 322
0 0 0 0 0 0 0 0 0 0 0 0 0 0 0 196 935 448 96 66 0 25 73 237 385 488 618 735 988 1108 1199 1229 1280 1214 1152 1043 975 883 561 218 128 10 28 55 1 0 0 104 231
0 0 0 0 0 0 0 0 0 0 0 0 0 0 19 602 1022 544 190 90 67 234 39 157 280 269 483 685 834 958 1057 1130 1162 1199 1187 1029 876 807 656 289 269 239 104 21 0 0 0 0 80
0 0 0 0 0 0 0 0 0 0 0 0 0 0 112 753 1070 941 696 416 253 521 284 133 114 235 303 519 608 688 782 831 855 954 1042 1001 788 756 619 484 303 114 21 13 12 7 0 0 0
0 0 0 0 0 0 0 0 0 0 0 0 0 0 0 436 1115 985 898 882 889 746 398 160 96 117 234 349 489 483 511 532 559 728 865 882 748 606 507 435 254 126 81 17 0 0 0 0 0
0 0 0 0 0 0 0 0 0 0 0 0 0 0 0 0 617 1180 918 1073 1179 983 804 369 147 118 199 226 324 402 395 309 352 573 750 784 696 530 418 378 298 185 52 0 0 0 0 0 0
0 0 0 0 0 0 0 0 0 0 0 0 0 0 0 0 7 1057 1075 1155 1280 1279 1272 1056 612 338 331 390 326 320 344 248 259 388 667 680 578 429 356 272 258 204 23 0 0 0 0 0 0
0 0 0 0 0 0 0 0 0 0 0 0 0 0 0 0 0 744 1101 1136 1262 1404 1577 1454 1288 903 696 765 671 498 420 357 258 338 623 611 521 382 332 293 229 128 19 0 0 0 0 0 0
0 0 0 0 0 0 0 0 0 0 0 0 0 0 0 0 0 42 610 1186 1439 1626 1714 1730 1679 1345 1086 1045 1026 912 701 557 402 380 427 476 457 333 239 216 181 56 35 15 0 0 0 0 0
0 0 0 0 0 0 0 0 0 0 0 0 0 0 0 0 0 0 74 576 1489 1781 1904 1889 1793 1614 1468 1384 1318 1182 1003 847 612 561 496 406 391 245 173 148 103 47 26 10 0 0 0 0 0
0 0 0 0 0 0 0 0 0 0 0 0 0 0 0 0 0 0 0 0 220 1548 1925 2067 1855 1700 1639 1480 1386 1130 1123 924 720 703 692 576 427 251 166 112 68 47 16 0 0 0 1 1 0
0 0 0 0 0 0 0 0 0 0 0 0 0 0 0 0 0 0 0 0 0 0 1138 1627 1735 1704 1649 1462 1340 1120 1414 1075 885 745 727 687 482 355 260 184 97 34 44 25 12 1 2 2 1
0 0 0 0 0 0 0 0 0 0 0 0 0 0 0 0 0 0 0 0 0 0 0 348 1443 1308 1532 1556 1438 1161 1279 916 907 694 621 688 606 426 367 272 166 71 38 33 19 1 2 3 2
0 0 0 0 0 2 26 0 0 0 0 0 0 0 0 0 0 0 0 0 0 0 0 0 762 1271 1515 1526 1221 1022 786 586 601 773 781 660 577 492 439 299 204 93 58 45 20 0 3 1 2
0 0 0 0 0 0 0 0 0 0 0 0 2 0 0 0 0 0 0 0 0 0 0 0 695 1373 1359 1501 1309 1126 1170 954 846 696 617 613 428 395 373 392 251 126 72 52 32 2 8 12 8
0 0 0 0 0 0 0 3 0 3 66 92 0 0 0 0 0 0 0 0 0 0 0 0 0 0 0 1006 1275 1163 1163 986 715 622 508 518 485 437 252 202 178 195 127 104 85 7 12 10 11
0 0 0 0 0 0 0 0 0 0 32 0 2 0 0 0 0 0 0 0 0 0 0 0 0 0 0 0 214 1047 1041 973 830 630 521 444 351 385 328 184 117 79 61 43 59 8 11 13 10
0 0 0 0 0 0 0 0 0 0 5 5 5 1 5 3 0 0 0 0 0 0 0 0 0 0 0 0 0 1 884 849 785 652 566 374 283 218 145 110 92 72 57 37 10 4 4 9 10
0 0 0 0 0 0 0 1 2 4 5 5 4 5 2 5 3 4 3 4 5 3 1 0 0 0 0 0 0 0 0 731 603 444 405 332 221 167 44 45 53 65 44 15 0 2 4 4 4
0 0 0 0 0 0 0 3 0 0 2 1 0 5 7 6 5 4 3 2 4 5 5 3 2 0 0 0 0 0 0 199 634 440 212 228 138 79 26 26 40 29 38 17 0 1 3 5 7
0 0 0 0 0 0 0 0 0 0 0 1 0 1 5 5 5 4 3 3 2 2 3 3 4 4 4 2 0 0 0 0 676 421 232 142 109 37 20 2 6 1 0 0 0 1 2 4 3
0 3 1 0 0 1 0 0 0 0 0 1 1 3 5 5 4 4 3 3 3 3 3 3 6 6 5 5 7 4 1 0 459 381 126 127 81 30 10 0 0 0 0 0 0 1 2 3 3
0 1 4 0 0 0 0 0 0 0 0 1 2 4 3 3 3 2 1 3 4 5 3 3 4 6 5 6 5 7 5 1 104 98 46 32 35 11 6 4 0 0 0 0 0 1 3 2 3

GFSSGP_con_mlcape_114.txt.gz
CAPE
0 0 0 0 0 0 0 0 0 0 0 0 0 0 0 0 0 0 114 368 22 324 900 930 1006 1070 937 776 680 626 580 524 564 865 1191 1242 1257 1193 1139 1182 1250 1335 1409 1332 1209 1105 1002 980 1054
0 0 0 0 0 0 0 0 0 0 0 0 0 0 0 0 3 260 497 263 253 558 861 938 1062 1164 1065 904 802 770 731 642 601 747 1016 1248 1269 1269 1256 1247 1246 1294 1376 1375 1320 1215 1091 918 966
0 0 0 0 0 0 0 0 0 0 0 0 0 0 0 0 81 467 310 433 433 540 837 951 1077 1162 1111 1042 977 917 820 718 686 751 926 1192 1349 1366 1355 1217 1116 1191 1262 1290 1282 1218 1067 900 890
0 0 0 0 0 0 0 0 0 0 0 0 0 0 0 0 61 449 374 630 402 470 817 946 1082 1116 1096 1126 1108 1052 862 780 764 843 1018 1269 1372 1408 1319 1061 942 1088 1178 1128 1263 1133 980 945 964
0 0 0 0 0 0 0 0 0 0 0 0 0 0 0 0 123 527 437 645 177 474 765 1014 1046 1046 1039 1143 1187 1152 942 832 824 958 1109 1307 1427 1498 1210 992 892 989 1113 1286 1175 848 877 941 983
0 0 0 0 0 0 0 0 0 0 0 0 0 0 0 0 75 495 357 185 179 171 647 957 1090 1002 979 1107 1208 1196 1045 925 872 957 1176 1269 1387 1290 1043 837 829 960 1126 1097 701 648 814 932 912
0 0 0 0 0 0 0 0 0 0 0 0 0 0 0 0 180 367 178 96 240 402 616 839 1002 1076 1109 1056 1153 1161 1125 1078 940 937 1137 1264 1216 1062 885 723 665 733 777 607 573 680 781 825 736
0 0 0 0 0 0 0 0 0 0 0 0 0 0 0 0 0 254 85 65 187 425 525 608 736 781 1023 1172 1197 1193 1208 1169 1049 957 1062 1130 1102 975 791 608 543 513 471 480 515 562 639 702 606
0 0 0 0 0 0 0 0 0 0 0 0 0 0 0 0 61 204 10 0 25 234 325 374 427 588 695 972 1196 1263 1333 1271 1128 1074 1047 1028 961 914 734 522 454 350 254 221 306 377 452 490 475
0 0 0 0 0 0 0 0 0 0 0 0 0 0 0 11 617 299 5 0 0 0 52 264 360 456 596 757 1037 1224 1377 1396 1232 1129 1059 935 872 761 587 358 317 148 60 10 40 13 73 225 206
0 0 0 0 0 0 0 0 0 0 0 0 0 0 0 0 363 873 161 9 0 17 12 207 288 477 571 633 771 913 1029 1150 1214 1136 1061 907 843 783 504 261 154 5 8 2 0 0 0 1 95
0 0 0 0 0 0 0 0 0 0 0 0 0 0 0 0 0 841 903 359 96 20 32 142 313 350 465 509 593 760 838 844 959 1073 1047 885 786 737 602 350 198 94 31 0 0 0 0 0 5
0 0 0 0 0 0 0 0 0 0 0 0 0 0 0 0 0 0 973 1168 923 270 91 80 232 290 355 310 364 479 628 675 722 848 969 913 777 708 609 525 312 211 22 0 0 0 0 0 0
0 0 0 0 0 0 0 0 0 0 0 0 0 0 0 0 0 0 0 959 1325 1022 575 345 196 285 340 266 180 209 388 473 538 670 797 888 766 642 589 501 383 223 31 0 0 0 0 0 0
0 0 0 0 0 0 0 0 0 0 0 0 0 0 0 0 0 0 0 161 1213 1419 1116 740 376 351 310 230 152 163 193 285 390 520 636 753 723 632 536 439 285 186 31 0 0 0 0 0 0
0 0 0 0 0 0 0 0 0 0 0 0 0 0 0 0 0 0 0 0 925 1467 1429 1210 690 386 322 285 195 200 200 221 262 336 516 631 642 546 462 377 246 115 51 14 0 0 0 0 0
0 0 0 0 0 0 0 0 0 0 0 0 0 0 0 0 0 0 0 0 818 1421 1515 1540 1332 943 647 550 386 362 282 243 234 285 377 503 551 453 435 363 216 67 93 35 0 0 0 0 0
0 0 0 0 0 0 0 0 0 0 0 0 0 0 0 0 0 0 0 0 384 1368 1532 1589 1665 1562 1194 1038 886 758 576 453 375 338 333 317 475 424 379 241 133 74 77 50 1 0 1 0 0
0 0 0 0 0 0 0 0 0 0 0 0 0 0 0 0 0 0 0 0 0 247 1396 1694 1788 1713 1520 1450 1256 1002 841 697 613 518 462 365 362 355 320 226 89 80 97 59 3 0 1 3 0
0 0 0 0 0 0 0 0 0 0 0 0 0 0 0 0 0 0 0 0 0 0 0 1115 1906 1747 1678 1656 1469 1182 1118 1021 884 693 619 579 439 335 306 219 94 67 70 32 14 10 14 2 1
0 0 0 0 0 0 0 0 0 0 0 0 0 0 0 0 0 0 0 0 0 0 0 0 1008 1823 1707 1585 1361 986 957 808 904 795 765 765 553 417 355 234 153 55 57 41 29 34 27 10 1
0 0 0 0 0 0 0 0 0 0 0 0 0 0 0 0 0 0 0 0 0 0 0 0 17 1148 1511 1665 1535 1338 1346 1183 1109 1087 831 753 540 586 396 288 252 143 89 66 62 50 31 11 5
0 0 0 0 0 0 0 0 0 0 0 0 4 5 2 1 0 0 0 0 0 0 0 0 0 0 0 543 1624 1312 1342 1177 953 900 862 807 670 509 478 406 253 196 92 85 71 51 28 15 15
0 0 0 0 0 0 0 0 0 11 18 3 4 5 6 3 3 3 1 1 0 0 0 0 0 0 0 0 77 1062 1307 1219 993 839 852 751 666 484 456 401 308 187 170 116 77 56 33 29 9
0 0 0 0 0 0 0 0 0 1 3 2 2 5 5 5 5 4 4 4 3 2 1 1 0 0 0 0 0 0 179 1158 1111 966 865 742 611 447 549 382 348 283 214 130 73 62 36 41 11
0 0 0 0 0 0 0 1 0 0 0 0 4 3 6 6 5 5 4 3 2 3 3 2 0 0 0 0 0 0 0 2 731 779 826 617 546 443 437 403 261 180 93 93 68 56 33 33 8
0 0 0 0 0 0 0 0 1 1 0 1 0 1 4 5 6 5 5 3 3 3 2 3 3 2 2 4 0 0 0 0 3 591 548 491 343 329 143 199 174 87 58 49 49 47 21 1 3
0 0 0 0 0 0 0 0 0 0 0 0 0 1 0 1 4 4 4 4 4 3 2 3 3 4 3 6 5 4 4 0 0 9 435 482 323 163 97 86 76 54 29 33 26 5 1 2 2
0 0 0 1 0 1 0 0 0 0 0 0 0 0 0 0 1 3 3 2 2 2 2 3 3 6 6 6 6 7 6 3 0 0 399 268 146 87 84 45 20 17 5 1 1 1 1 0 0
2 0 0 1 0 0 0 0 0 0 0 0 1 1 0 0 0 2 3 3 2 2 1 2 4 6 5 4 6 6 4 7 3 0 0 233 137 37 15 23 5 2 2 1 2 0 0 0 0

GFSSGP_con_mlcape_120.txt.gz
CAPE
0 0 0 0 0 0 0 0 0 0 0 0 0 0 0 0 0 0 394 796 801 1169 1623 1317 1119 930 734 651 684 800 994 1169 1366 1259 1169 1076 1012 1110 1309 1449 1516 1395 1471 1521 1323 1396 1539 1280 1014
0 0 0 0 0 0 0 0 0 0 0 0 0 0 0 0 0 0 262 1018 862 1270 1689 1686 1188 975 817 673 666 834 1034 1211 1416 1405 1324 1179 1164 1267 1382 1461 1477 1543 1559 1437 1378 1343 1501 1146 996
0 0 0 0 0 0 0 0 0 0 0 0 0 0 0 0 0 0 34 1075 959 1421 1764 1870 1243 1037 890 754 718 920 1109 1249 1447 1500 1383 1317 1278 1295 1336 1378 1531 1563 1573 1468 1435 1403 1332 970 1009
0 0 0 0 0 0 0 0 0 0 0 0 0 0 0 0 0 0 581 1165 1038 1465 1813 1869 1311 1090 995 864 803 955 1138 1274 1472 1499 1439 1409 1392 1388 1392 1465 1554 1623 1626 1547 1486 1470 1129 1016 985
0 0 0 0 0 0 0 0 0 0 0 0 0 0 0 0 0 0 155 1264 1027 1637 1890 2048 1394 1206 1076 1020 969 954 1016 1322 1567 1668 1602 1552 1542 1472 1373 1406 1516 1597 1563 1627 1655 1140 931 983 955
0 0 0 0 0 0 0 0 0 0 0 0 0 0 0 0 0 0 108 1233 1407 1781 2065 2134 1528 1357 1212 1147 1089 1001 886 1140 1568 1700 1713 1650 1527 1375 1314 1363 1459 1542 1560 1626 1392 992 896 937 936
0 0 0 0 0 0 0 0 0 0 0 0 0 0 0 0 0 0 407 1285 1781 1957 2184 2189 1976 1703 1326 1239 1145 1042 934 980 1271 1517 1701 1567 1499 1376 1335 1290 1335 1446 1486 1472 1146 935 896 937 935
0 0 0 0 0 0 0 0 0 0 0 0 0 0 0 0 0 0 211 1019 1747 1984 2221 2291 2179 2036 1941 1780 1301 1104 1001 1012 1142 1279 1444 1504 1431 1368 1208 1130 1211 1353 1350 1185 902 842 861 905 843
0 0 0 0 0 0 0 0 0 0 0 0 0 0 0 0 0 0 0 66 1296 1751 1836 2087 2078 1910 1982 1978 1822 1306 1091 1080 1189 1307 1383 1443 1486 1531 1277 1138 1165 1210 1203 901 691 721 817 801 768
0 0 0 0 0 0 0 0 0 0 0 0 0 0 0 0 0 0 0 0 94 1264 1461 1684 1769 1749 1897 1802 1857 1796 1632 1437 1453 1476 1645 1575 1508 1527 1314 1135 995 1001 891 652 632 724 728 744 885
0 0 0 0 0 0 0 0 0 0 0 0 0 0 0 0 0 0 0 0 0 212 1110 1211 1294 1374 1431 1625 1730 1684 1628 1439 1615 1667 1794 1715 1728 1562 1467 1395 975 1014 668 742 697 766 790 688 775
0 0 0 0 0 0 0 0 0 0 0 0 0 0 0 0 0 0 0 0 0 0 624 1086 1126 1175 1191 1388 1394 1392 1620 1658 1771 1832 1819 1831 1849 1739 1420 1330 1065 1069 787 695 741 723 716 795 818
0 0 0 0 0 0 0 0 0 0 0 0 0 0 0 0 0 0 0 0 0 0 0 789 1076 1007 1029 1491 1291 1289 1452 1580 1624 1731 1968 1905 1525 1648 1526 1311 1141 1056 859 859 778 651 482 483 574
0 0 0 0 0 0 0 0 0 0 0 0 0 0 0 0 0 0 0 0 0 0 0 531 1047 1025 999 1190 1352 1340 1368 1470 1575 1588 1754 2065 1623 1527 1505 1305 1229 1012 950 871 881 736 401 319 325
0 0 0 0 0 0 0 0 0 0 0 0 0 0 0 0 0 0 0 0 0 0 0 8 1064 1121 902 998 1292 1226 1262 1185 1369 1439 1556 1697 1551 1419 1438 1425 1304 1073 975 1054 982 705 524 444 351
0 0 0 0 0 0 0 0 0 0 0 0 0 0 0 0 0 0 0 0 0 0 0 0 733 1211 1000 987 1122 1103 1056 983 1553 1668 1475 1519 1494 1366 1276 1273 1056 1202 941 818 949 784 671 554 386
0 0 0 0 0 0 0 0 0 0 0 0 0 0 0 0 0 0 0 0 0 0 0 0 30 1307 1182 1114 1035 1098 1009 1010 1141 1295 1333 1409 1491 1251 1105 1034 1158 1226 921 621 873 828 755 540 431
0 0 0 0 0 0 0 0 0 0 0 0 0 0 0 0 0 0 0 0 0 0 0 0 0 1324 1344 1291 1149 992 1020 974 1011 1236 1323 1223 1279 1204 1071 1031 983 856 803 521 523 455 717 617 553
0 0 0 0 0 0 0 0 0 0 0 0 0 0 0 0 0 0 0 0 0 0 0 0 0 266 1551 1357 1002 862 948 911 962 1111 1179 1269 1125 1179 1214 986 812 766 727 495 430 491 528 671 573
0 0 0 0 0 0 0 0 0 0 0 5 0 0 0 0 0 0 0 0 0 0 0 0 0 4 1472 1538 1228 946 1049 873 873 938 1098 1317 1041 1132 1311 1064 909 602 658 513 428 328 381 414 398
0 0 0 0 0 0 0 0 0 0 0 0 0 2 3 1 0 0 7 0 4 0 0 0 20 37 1228 1469 1630 1265 1185 1022 931 909 1127 1347 1280 1033 1104 1083 799 632 573 559 384 277 330 332 126
0 0 0 0 0 0 0 0 0 0 0 0 0 2 1 2 5 0 5 3 4 1 0 0 2 689 1594 1669 1678 1369 1368 1241 1385 1179 1060 1026 1116 1272 921 1087 861 726 581 600 412 279 221 315 113
0 0 0 0 0 0 0 0 1 0 0 0 4 7 0 1 3 4 5 4 5 0 0 0 0 4 496 1811 1672 1459 1745 1711 1837 1682 1375 1213 1048 1300 1319 1163 1006 934 692 716 571 241 221 303 329
0 0 0 0 0 0 0 0 0 2 4 2 2 8 4 0 1 4 7 5 4 1 1 0 1 4 4 23 881 1523 1274 1897 2117 1870 1835 1313 1127 1039 1097 1374 1204 993 849 713 576 358 282 259 289
0 6 2 12 18 0 0 0 3 0 0 3 2 1 4 0 1 1 1 4 6 5 3 1 1 4 4 7 6 16 575 802 2171 2042 1955 1450 1332 1061 1031 1353 1245 1063 904 812 611 530 464 536 435
0 5 7 2 5 4 0 3 2 0 5 5 3 2 3 2 0 1 0 5 3 5 4 4 3 4 4 5 5 6 5 12 157 639 980 1721 1432 1316 1237 1088 1072 1021 931 795 986 890 724 624 485
0 7 7 3 6 2 6 1 0 0 1 2 1 2 2 2 0 1 2 4 5 6 4 5 5 4 4 4 3 6 5 4 5 1 13 237 1461 1288 1153 1073 938 858 867 800 751 838 642 615 574
2 1 11 7 0 3 10 1 3 2 3 0 0 0 1 2 1 0 2 4 4 4 2 1 1 5 4 5 4 6 7 7 5 4 4 2 2 598 1005 845 772 731 679 623 504 506 463 344 321
6 13 7 2 3 6 7 1 0 0 1 1 1 1 0 1 1 0 1 3 2 1 1 2 2 4 4 4 6 8 8 6 6 7 6 4 2 0 568 677 567 505 532 287 193 199 282 294 314
0 10 5 7 2 11 1 0 0 3 2 2 1 1 0 1 2 1 1 2 2 2 2 3 3 4 3 3 3 6 7 4 8 9 7 7 5 3 4 350 484 490 393 287 184 159 147 231 248

GFSSGP_con_mlcape_123.txt.gz
CAPE
0 0 0 0 0 0 0 0 0 0 0 0 0 0 0 0 0 0 0 911 919 894 2230 1411 1301 1033 841 875 991 1173 1368 1434 1325 1117 1017 1001 1017 1059 1228 1457 1401 1435 1749 1795 1481 1347 1280 1521 1180
0 0 0 0 0 0 0 0 0 0 0 0 0 0 0 0 0 0 0 160 728 1181 2044 1710 1300 1030 844 843 977 1100 1287 1539 1458 1314 1172 1084 1120 1232 1412 1553 1555 1521 1695 1554 1460 1544 1686 1377 1031
0 0 0 0 0 0 0 0 0 0 0 0 0 0 0 0 0 0 0 614 1190 1336 1918 1901 1323 1044 850 814 904 1034 1240 1407 1586 1519 1442 1256 1229 1377 1498 1571 1510 1426 1387 1352 1515 1474 1646 1102 1077
0 0 0 0 0 0 0 0 0 0 0 0 0 0 0 0 0 0 0 841 1350 1592 1929 1917 1443 1179 952 792 877 1109 1283 1399 1544 1643 1644 1459 1366 1485 1537 1596 1558 1449 1411 1368 1481 1348 1186 951 993
0 0 0 0 0 0 0 0 0 0 0 0 0 0 0 0 0 0 13 361 1357 1586 1980 2322 1579 1322 1039 916 961 1100 1250 1454 1540 1687 1676 1607 1563 1592 1500 1532 1617 1596 1467 1503 1311 1211 1055 942 971
0 0 0 0 0 0 0 0 0 0 0 0 0 0 0 0 0 0 54 544 1561 1525 2068 2768 1747 1439 1246 1070 1016 1050 1194 1431 1622 1669 1682 1638 1564 1398 1445 1603 1683 1634 1522 1509 1435 994 960 956 935
0 0 0 0 0 0 0 0 0 0 0 0 0 0 0 0 0 0 0 592 1483 2151 2268 2605 2332 1776 1400 1194 1082 1003 1112 1388 1673 1729 1753 1660 1454 1392 1490 1561 1632 1651 1594 1471 1289 935 879 881 863
0 0 0 0 0 0 0 0 0 0 0 0 0 0 0 0 0 0 0 0 1134 2150 2649 2707 2710 2279 1980 1730 1255 1074 1026 1241 1602 1734 1757 1696 1512 1376 1434 1480 1560 1593 1533 1454 1153 909 875 865 807
0 0 0 0 0 0 0 0 0 0 0 0 0 0 0 0 0 0 0 0 0 1276 2298 2635 2695 2520 2291 2210 1928 1284 1103 1113 1296 1632 1716 1638 1590 1650 1647 1453 1402 1466 1412 1271 1002 869 842 789 758
0 0 0 0 0 0 0 0 0 0 0 0 0 0 0 0 0 0 0 0 0 0 1248 2330 2478 2438 2309 2025 2223 1912 1695 1452 1468 1487 1742 1629 1400 1662 1474 1290 1290 1252 1240 1003 768 755 728 710 925
0 0 0 0 0 0 0 0 0 0 0 0 0 0 0 0 0 0 0 0 0 0 0 1692 2112 2311 1963 2066 1883 1951 1662 1530 1626 1709 1842 1610 1644 1707 1502 1520 1393 1351 1052 960 710 764 914 724 826
0 0 0 0 0 0 0 0 0 0 0 0 0 0 0 0 0 0 0 0 0 0 0 0 1819 1853 1713 2058 1742 1707 1476 1473 1409 1557 1909 1837 1856 1620 1448 1476 1329 1368 1093 972 762 694 697 754 929
0 0 0 0 0 0 0 0 0 0 0 0 0 0 0 0 0 0 0 0 0 0 0 0 652 1739 1740 1935 1697 1622 1675 1585 1340 1578 1961 2104 1907 1856 1585 1619 1385 1265 1211 1082 882 870 893 759 747
0 0 0 0 0 0 0 0 0 0 0 0 0 0 0 0 0 0 0 0 0 0 0 0 0 1475 1694 1639 1946 1757 1731 1632 1818 1969 1988 2207 2167 2063 1838 1564 1516 1300 1282 1204 1015 847 807 840 791
0 0 0 0 0 0 0 0 0 0 0 0 0 0 0 0 0 0 0 0 0 0 0 0 0 545 1763 1651 1562 1733 1593 1819 1750 1768 1979 2263 2136 2104 1917 1624 1628 1462 1428 1075 991 854 785 724 565
0 0 0 0 0 0 0 0 0 0 0 0 0 0 0 0 0 0 0 0 0 0 0 0 0 0 1690 1730 1480 1664 1536 1663 1718 1699 1687 1951 2219 1942 1965 1559 1488 1477 1224 1196 1109 1181 927 671 614
0 0 0 0 0 0 0 0 0 0 0 0 0 0 0 0 0 0 0 0 0 0 0 0 0 0 151 1761 1537 1737 1562 1628 1398 1550 1608 1728 1930 1756 1831 1606 1629 1867 1435 1387 1290 1238 1074 718 720
0 0 0 0 0 0 0 0 0 0 0 0 0 0 0 0 0 0 0 0 0 0 0 0 0 0 0 1671 1667 1444 1409 1402 1281 1368 1582 1722 1678 1715 1657 1620 1435 1535 1551 1126 1280 1268 1203 1052 713
0 0 0 0 0 0 0 0 0 0 2 0 0 0 0 0 0 0 0 0 0 0 0 0 0 0 0 675 1510 1523 1367 1284 1293 1193 1404 1765 1545 1627 1643 1453 1371 1427 1471 1069 1030 1123 1270 999 990
0 0 0 0 0 0 0 0 0 0 0 0 0 0 0 0 0 0 0 0 1 0 7 16 0 0 0 0 1390 1380 1333 1257 1341 1173 1378 1761 1541 1459 1532 1477 1343 1285 1203 1084 949 1049 948 1142 990
0 0 0 0 0 0 0 0 10 4 0 0 0 0 0 0 3 5 7 1 1 0 0 0 0 4 0 0 1488 1398 1496 1199 1107 979 1265 1718 1728 1304 1267 1379 1237 1160 1098 1030 1062 899 861 955 1035
0 0 0 0 0 0 0 0 63 0 0 0 0 0 0 1 3 6 4 4 5 4 1 0 0 0 0 0 335 1321 1273 1154 995 1042 1262 1555 1769 1328 1255 1390 1244 1008 915 948 963 986 850 796 544
0 0 0 0 0 0 0 26 121 0 0 0 0 2 1 1 5 3 4 2 3 4 2 2 0 4 1 2 101 1410 1187 1414 1193 1266 1225 1380 1710 1499 1185 1193 1246 983 827 839 973 757 892 809 661
0 0 0 5 19 1 55 16 38 0 2 1 3 3 4 9 6 8 2 2 2 1 2 0 0 2 2 3 550 1486 1278 1543 1331 1403 1647 1544 1473 1317 1665 1179 1206 1107 856 833 898 768 686 729 644
0 0 0 12 23 12 4 3 0 0 0 0 1 4 3 8 5 6 3 1 1 2 3 2 2 4 2 1 4 31 1050 1184 1474 1469 1667 1682 1296 1115 1578 1748 1497 1116 1038 919 882 767 673 568 549
0 3 6 0 0 0 0 59 2 0 0 1 1 1 3 5 4 2 1 1 1 1 1 5 5 4 2 3 4 5 5 24 11 0 0 1147 1203 1204 1364 1352 1524 1639 1143 943 864 753 660 607 510
5 1 26 27 5 5 46 1 1 0 0 0 0 2 3 3 2 1 1 1 1 0 0 3 4 3 4 2 3 5 5 5 0 0 0 63 66 598 1463 1447 1204 1244 1032 954 941 899 1005 907 858
0 10 10 23 2 7 39 0 2 1 2 0 0 1 1 1 1 1 1 1 1 0 0 2 4 3 4 4 2 3 4 5 4 2 1 5 3 2 261 1497 1286 1055 931 963 894 917 1037 858 946
16 16 12 14 8 7 7 1 4 3 2 2 2 1 0 0 0 1 1 0 0 1 0 2 6 3 3 2 2 4 4 4 6 9 5 5 3 4 2 253 973 809 710 546 642 630 667 827 675
0 5 3 6 7 2 3 1 1 1 3 3 2 0 0 1 1 1 1 0 1 1 1 2 2 2 2 1 2 2 3 8 8 6 5 4 5 6 8 4 3 45 303 378 328 385 309 447 553

GFSSGP_con_mlcape_126.txt.gz
CAPE
0 0 0 0 0 0 0 0 0 0 0 0 0 0 0 0 0 0 0 113 639 2021 1764 1309 1105 964 920 950 1029 1274 1491 1488 1341 1196 1041 912 902 948 1085 1139 975 1597 1982 1764 1597 1484 1401 1494 1147
0 0 0 0 0 0 0 0 0 0 0 0 0 0 0 0 0 0 0 207 1053 1268 2263 1776 1298 1143 998 984 1109 1358 1590 1606 1437 1306 1170 1026 1020 1023 1218 1352 1294 1476 1783 1574 1456 1401 1442 1490 1041
0 0 0 0 0 0 0 0 0 0 0 0 0 0 0 0 0 0 17 296 1205 1348 2487 2154 1488 1302 1058 1054 1149 1380 1615 1627 1474 1386 1312 1108 1095 1148 1276 1439 1391 1568 1652 1572 1205 1410 1442 1178 986
0 0 0 0 0 0 0 0 0 0 0 0 0 0 0 0 0 0 75 329 1434 1739 2323 1984 1569 1305 1159 1077 1167 1338 1424 1561 1562 1533 1507 1274 1237 1263 1353 1464 1513 1445 1450 1476 1434 1408 1307 1012 926
0 0 0 0 0 0 0 0 0 0 0 0 0 0 0 0 0 0 52 692 1469 2001 2391 2101 1728 1185 1175 1073 1101 1278 1336 1430 1522 1620 1675 1544 1388 1391 1425 1482 1476 1337 1322 1368 1279 1262 1063 881 882
0 0 0 0 0 0 0 0 0 0 0 0 0 0 0 0 0 0 0 227 1349 2016 3012 2275 1804 1365 1167 1089 1047 1253 1340 1442 1531 1605 1756 1720 1560 1509 1442 1446 1385 1412 1452 1429 1276 1103 992 884 893
0 0 0 0 0 0 0 0 0 0 0 0 0 0 0 0 0 0 0 0 411 1857 2611 2986 2336 1695 1323 1206 1066 1169 1294 1480 1571 1628 1747 1728 1624 1483 1437 1413 1419 1528 1508 1457 1295 974 916 912 868
0 0 0 0 0 0 0 0 0 0 0 0 0 0 0 0 0 0 0 0 0 1343 2407 2816 2775 2061 1741 1492 1201 1082 1229 1463 1644 1672 1732 1704 1499 1500 1428 1475 1474 1507 1472 1426 1214 907 824 826 754
0 0 0 0 0 0 0 0 0 0 0 0 0 0 0 0 0 0 0 0 0 0 332 2479 2785 2565 2217 2077 1705 1182 1150 1321 1636 1796 1819 1660 1723 1622 1536 1475 1480 1460 1359 1324 1120 848 786 751 696
0 0 0 0 0 0 0 0 0 0 0 0 0 0 0 0 0 0 0 0 0 0 0 1629 2321 2640 2692 2453 2297 1654 1377 1301 1540 1884 1952 1974 1957 1860 1799 1608 1534 1296 1243 1169 970 789 721 618 705
0 0 0 0 0 0 0 0 0 0 0 0 0 0 0 0 0 0 0 0 0 0 0 0 2273 2140 2178 2637 2537 2198 1879 1600 1619 1763 2023 2001 1938 1867 1528 1492 1395 1275 1141 998 771 646 681 548 954
0 0 0 0 0 0 0 0 0 0 0 0 0 0 0 0 0 0 0 0 0 0 0 0 0 2288 2179 2255 2291 2535 2158 1924 1849 1828 1959 1731 1821 1810 1404 1523 1459 1428 1154 1120 758 687 723 798 796
0 0 0 0 0 0 0 0 0 0 0 0 0 0 0 0 0 0 0 0 0 0 0 0 0 1483 2232 2002 1712 2174 2045 1952 1803 1868 1979 2055 1786 1942 1638 1463 1483 1492 1365 1255 817 855 640 848 720
0 0 0 0 0 0 0 0 0 0 0 0 0 0 0 0 0 0 0 0 0 0 0 0 0 0 2133 1901 1510 1956 1769 1931 1906 1857 2037 1889 2081 1983 1683 1493 1574 1347 1429 1281 1034 966 952 901 713
0 0 0 0 0 0 0 0 0 0 0 0 0 0 0 0 0 0 0 0 0 0 0 0 0 0 0 2094 1861 1526 2044 2072 1510 2156 1973 1881 2253 2121 1735 1654 1663 1498 1232 1224 1137 1032 858 724 787
0 0 0 0 0 0 0 0 0 0 0 0 0 0 0 0 0 0 0 0 0 0 0 0 0 0 0 51 1967 1618 1367 1879 1818 1929 2210 1992 2160 2363 2037 1717 1771 1722 1334 1167 1031 895 791 681 695
0 0 0 0 0 0 0 0 0 0 0 0 0 0 0 0 0 0 0 0 0 0 0 0 0 0 0 0 925 1487 1410 1748 1862 1555 1472 2090 2321 2150 2015 1977 1762 1703 1411 1267 989 912 854 820 605
0 0 0 0 0 0 0 0 0 0 0 0 0 0 0 0 0 0 0 0 0 0 0 0 0 0 0 0 1 1336 1346 1083 1679 1644 1690 1813 1967 2037 1670 1900 1895 1747 1476 1090 1151 1050 1046 997 685
0 0 0 0 0 0 0 0 0 0 0 0 0 0 0 0 0 0 0 0 0 0 0 0 0 0 0 0 0 598 985 850 1276 1523 1857 1830 1728 1801 1522 1509 1971 1896 1691 1508 1387 1236 1203 1193 1074
0 0 0 0 0 0 0 0 0 0 0 0 0 0 0 0 0 0 0 0 0 0 0 0 0 0 0 0 0 13 472 866 930 1499 1505 1868 1667 1700 1581 1393 1426 1484 1434 1558 1198 1123 1306 1303 1048
0 0 0 0 0 0 0 0 0 2 0 0 0 0 0 0 0 0 0 1 1 0 0 1 0 0 0 0 0 0 0 513 607 1155 1219 2036 1906 1776 1685 1371 1225 1213 1164 1259 966 861 992 1176 969
0 0 0 0 0 0 0 0 0 18 0 0 0 0 0 0 0 0 1 1 0 1 1 0 1 0 0 0 0 0 0 0 515 990 1156 1824 1950 1718 1611 1283 1210 1003 1073 997 1077 791 843 797 1072
0 0 0 0 0 0 0 13 0 0 0 0 0 0 0 0 0 1 2 0 2 1 2 0 1 0 0 0 0 2 0 0 0 841 1120 1412 1864 1587 1476 1198 1211 996 855 927 903 831 831 689 1002
0 0 0 0 0 0 12 1 0 0 0 0 0 0 0 1 0 0 2 1 1 3 0 1 2 2 0 0 0 2 3 0 0 713 780 1182 1739 1420 1223 991 1179 1056 817 796 795 732 827 643 801
0 0 0 0 0 0 21 26 0 0 0 0 1 0 1 0 0 2 1 2 3 2 1 3 3 1 0 0 1 3 3 6 10 419 875 1015 1442 1502 1152 970 1016 1010 823 784 744 763 691 680 674
0 0 0 0 0 0 2 1 0 0 0 0 0 0 1 0 1 0 2 2 1 2 2 2 2 1 1 1 1 1 1 0 13 5 12 714 1131 1301 1503 939 899 977 957 817 724 682 747 621 584
1 0 8 7 0 0 0 0 0 0 0 0 1 1 1 1 1 0 1 1 2 1 1 0 1 3 3 1 1 5 5 1 3 0 0 3 0 0 330 956 1343 1274 1106 965 787 733 653 629 598
0 0 0 13 0 0 0 1 0 0 0 1 1 0 0 1 0 0 1 1 1 1 0 1 0 2 3 1 2 4 8 6 4 1 0 1 1 0 5 4 458 893 1228 1226 981 916 772 636 582
0 1 12 11 12 5 2 0 0 1 1 2 1 2 1 0 0 0 1 0 0 0 0 0 0 1 1 2 2 4 5 7 8 6 9 5 4 6 2 5 6 1 98 303 923 1085 922 850 926
0 0 0 1 0 0 0 0 0 0 1 0 1 2 1 0 0 1 1 1 0 0 0 0 0 0 1 1 3 3 2 2 5 9 10 6 8 7 7 7 7 7 9 7 2 2 104 683 744

GFSSGP_con_mlcape_129.txt.gz
CAPE
0 0 0 0 0 0 0 0 0 0 0 0 0 0 0 0 0 0 0 664 1539 1610 1296 1147 1034 986 985 1069 1275 1363 1370 1402 1266 1122 869 675 669 687 693 761 1016 1333 1475 1444 1182 1168 1020 926 770
0 0 0 0 0 0 0 0 0 0 0 0 0 0 0 0 0 4 8 791 1203 2013 1554 1302 1116 1068 1082 1141 1343 1526 1614 1600 1422 1314 1050 860 795 806 789 752 954 1661 1628 1653 1457 1333 1280 1036 871
0 0 0 0 0 0 0 0 0 0 0 0 0 0 0 0 0 10 331 1045 1579 2355 1927 1528 1298 1201 1145 1127 1349 1599 1739 1661 1498 1413 1228 1018 955 972 977 1056 1094 1411 1547 1439 1260 1280 1318 1118 894
0 0 0 0 0 0 0 0 0 0 0 0 0 0 0 0 0 0 417 493 1519 2352 2416 1876 1439 1304 1182 1142 1355 1587 1783 1698 1536 1457 1390 1154 1122 1062 1106 1177 1158 1456 1525 1384 1331 1327 1281 950 869
0 0 0 0 0 0 0 0 0 0 0 0 0 0 0 0 0 0 0 0 632 2266 2146 1860 1656 1402 1158 1115 1302 1472 1583 1603 1573 1546 1482 1295 1256 1169 1180 1239 1367 1316 1333 1416 1327 1233 1082 888 852
0 0 0 0 0 0 0 0 0 0 0 0 0 0 0 0 0 0 0 0 175 1680 2531 1937 1719 1396 1144 1058 1200 1367 1407 1462 1498 1651 1611 1498 1383 1263 1277 1293 1379 1235 1248 1276 1190 1051 914 813 838
0 0 0 0 0 0 0 0 0 0 0 0 0 0 0 0 0 0 0 0 0 1168 2223 2525 2200 1834 1356 1110 1103 1220 1339 1409 1489 1664 1731 1659 1521 1349 1361 1369 1379 1354 1331 1234 1099 941 881 827 831
0 0 0 0 0 0 0 0 0 0 0 0 0 0 0 0 0 0 0 0 0 0 247 2222 2474 2020 1538 1164 1117 1137 1260 1359 1493 1648 1764 1739 1577 1453 1433 1419 1414 1454 1377 1285 1049 852 819 811 746
0 0 0 0 0 0 0 0 0 0 0 0 0 0 0 0 0 0 0 0 0 0 0 1333 2441 2268 1835 1315 1151 1124 1185 1330 1507 1695 1758 1689 1637 1549 1527 1430 1480 1515 1402 1260 1033 787 730 706 638
0 0 0 0 0 0 0 0 0 0 0 0 0 0 0 0 0 0 0 0 0 0 0 0 1965 2576 2355 2025 1706 1251 1043 1172 1416 1725 1695 1658 1593 1486 1476 1434 1437 1436 1393 1243 997 748 668 593 475
0 0 0 0 0 0 0 0 0 0 0 0 0 0 0 0 0 0 0 0 0 0 0 0 0 475 2606 2420 2220 1813 1365 1035 1192 1639 1783 1692 1673 1594 1481 1357 1449 1409 1273 1134 914 677 572 508 437
0 0 0 0 0 0 0 0 0 0 0 0 0 0 0 0 0 0 0 0 0 0 0 0 0 0 489 2142 1938 1904 1844 1402 1111 1245 1816 1685 1623 1755 1437 1354 1292 1300 1091 877 755 529 482 348 761
0 0 0 0 0 0 0 0 0 0 0 0 0 0 0 0 0 0 0 0 0 0 0 0 0 0 0 50 1791 1731 1594 1921 1578 1324 1537 1831 1602 1517 1556 1389 1350 1204 1067 838 632 482 300 235 546
0 0 0 0 0 0 0 0 0 0 0 0 0 0 0 0 0 0 0 0 0 0 0 0 0 0 0 0 203 1532 1750 1961 1834 1623 1564 1809 1458 1414 1529 1386 1305 1254 1140 951 718 583 245 447 723
0 0 0 0 0 0 0 0 0 0 0 0 0 0 0 0 0 0 0 0 0 0 0 0 0 0 0 0 0 617 1518 1389 1684 1690 1746 1776 1709 1476 1692 1402 1368 1310 1260 910 972 680 587 598 695
0 0 0 0 0 0 0 0 0 0 0 0 0 0 0 0 0 0 0 0 0 0 0 0 0 0 0 0 0 0 205 1057 1086 1465 1752 1892 1767 1746 1717 1470 1339 1308 1283 1000 1051 813 881 837 696
0 0 0 0 0 0 0 0 0 0 0 0 0 0 0 0 0 0 0 0 0 0 0 0 0 0 0 0 0 0 0 650 810 998 1630 1927 1842 1820 1818 1539 1382 1405 1273 1017 1037 921 777 610 521
0 0 0 0 0 0 0 0 0 0 0 0 0 0 0 0 0 0 0 0 0 0 0 0 0 0 0 0 0 0 0 9 766 680 1190 1896 2024 1970 1978 1670 1438 1502 1384 1030 922 851 663 586 498
0 0 0 0 0 0 0 0 0 0 0 0 0 0 0 0 0 0 0 0 0 0 0 0 0 0 0 0 0 0 0 0 601 560 729 1254 1888 1974 1913 1835 1705 1588 1378 1074 903 769 675 701 750
0 0 0 0 0 0 0 0 0 0 0 0 0 0 0 0 0 0 0 0 0 0 0 0 0 0 0 0 0 0 0 0 0 12 711 752 1201 1616 1898 1732 1763 1655 1397 1058 911 688 742 772 825
0 0 0 0 0 0 0 0 0 0 0 0 0 0 0 0 0 0 0 0 0 0 0 0 0 2 0 0 0 0 0 0 0 0 0 588 1047 1383 1696 1611 1581 1564 1398 1158 1011 887 850 970 904
0 0 0 0 0 0 0 0 0 0 0 0 0 0 0 0 0 0 0 0 0 0 0 0 0 1 0 0 1 1 0 0 0 0 0 18 636 1274 1445 1404 1204 1448 1429 1331 1110 990 1010 951 961
0 0 0 0 0 0 0 0 0 0 0 0 0 0 0 0 0 0 0 0 0 0 0 0 0 0 1 1 0 1 0 1 0 0 0 0 45 964 1335 1276 1106 1013 1008 1036 1122 846 502 718 762
0 0 0 0 0 0 0 0 0 0 0 0 0 0 0 0 0 0 0 0 0 0 0 1 0 2 1 1 1 2 3 1 0 0 0 0 0 341 1310 1259 966 856 856 751 724 671 473 440 592
0 0 0 0 0 0 0 0 0 0 0 0 0 0 0 0 0 0 1 1 1 0 1 2 2 2 2 1 1 1 0 12 2 0 0 1 0 0 828 1194 870 788 766 724 699 550 587 541 419
0 0 0 0 0 0 0 0 0 0 0 0 0 0 0 0 0 0 0 1 1 0 0 2 2 1 2 2 1 1 3 1 0 0 6 8 0 0 243 1005 749 821 701 677 607 557 532 589 519
0 0 0 3 0 0 0 0 1 0 0 0 0 0 1 0 1 0 0 0 1 0 0 1 2 2 2 2 2 1 2 2 1 0 0 0 0 0 0 516 731 773 671 603 554 559 576 501 463
0 0 0 1 0 0 0 0 0 0 0 0 0 1 1 2 0 0 1 1 0 0 0 0 1 2 1 1 2 2 2 5 4 5 2 0 0 0 0 4 21 413 422 584 530 518 532 519 456
0 0 0 3 8 0 0 0 2 0 0 1 0 0 1 2 0 0 0 0 1 0 0 0 1 1 1 0 1 1 2 3 4 8 7 7 6 0 0 5 5 11 9 4 42 162 350 626 550
0 0 0 0 0 0 0 0 0 0 0 0 0 0 0 0 0 1 1 1 0 1 0 0 0 0 0 0 0 1 1 3 6 8 6 4 4 6 6 10 4 0 6 11 10 6 4 2 13

GFSSGP_con_mlcape_132.txt.gz
CAPE
0 0 0 0 0 0 0 0 0 0 0 0 0 0 0 0 0 0 0 1159 1770 1478 1207 1185 1135 1140 1240 1296 1175 1135 1130 1141 1136 916 681 658 623 683 874 1125 1263 1215 1381 1295 1032 946 990 887 624
0 0 0 0 0 0 0 0 0 0 0 0 0 0 0 0 9 200 344 1566 1966 1814 1310 1146 1131 1161 1244 1359 1388 1388 1419 1352 1280 1131 872 814 711 632 772 933 1088 1572 1544 1435 1223 1041 940 789 714
0 0 0 0 0 0 0 0 0 0 0 0 0 0 0 0 2 11 255 2039 2281 2082 1561 1347 1223 1206 1296 1330 1481 1632 1777 1610 1425 1303 1075 977 844 713 673 827 1248 1761 1661 1643 1477 1335 1173 893 797
0 0 0 0 0 0 0 0 0 0 0 0 0 0 0 0 0 0 0 1640 2107 2372 2151 1735 1342 1179 1158 1253 1428 1609 1832 1743 1565 1452 1284 1163 1048 903 870 866 1222 1537 1498 1476 1499 1499 1186 888 796
0 0 0 0 0 0 0 0 0 0 0 0 0 0 0 0 0 0 0 0 1476 1743 2207 1848 1494 1315 1190 1167 1321 1563 1789 1784 1663 1523 1448 1322 1202 1078 1028 1084 1186 1502 1461 1451 1402 1359 1067 842 819
0 0 0 0 0 0 0 0 0 0 0 0 0 0 0 0 0 0 0 0 305 1569 1707 1937 1813 1600 1301 1130 1201 1316 1543 1685 1716 1615 1572 1470 1321 1168 1144 1193 1340 1397 1370 1428 1267 1183 983 825 797
0 0 0 0 0 0 0 0 0 0 0 0 0 0 0 0 0 0 0 0 0 377 1976 1595 1820 1892 1620 1292 1131 1244 1295 1490 1652 1701 1677 1646 1438 1255 1218 1303 1393 1312 1312 1297 1159 1010 878 812 816
0 0 0 0 0 0 0 0 0 0 0 0 0 0 0 0 0 0 0 0 0 0 0 47 2085 1991 1778 1432 1188 1080 1255 1344 1547 1688 1734 1772 1643 1422 1303 1374 1466 1382 1364 1249 1107 944 862 821 796
0 0 0 0 0 0 0 0 0 0 0 0 0 0 0 0 0 0 0 0 0 0 0 0 1003 2131 1829 1528 1198 1072 1102 1220 1395 1667 1768 1849 1836 1611 1489 1471 1458 1446 1419 1287 1072 899 825 788 701
0 0 0 0 0 0 0 0 0 0 0 0 0 0 0 0 0 0 0 0 0 0 0 0 0 0 185 1724 1460 1080 997 1055 1254 1449 1673 1762 1773 1657 1585 1489 1431 1496 1414 1281 1076 850 737 674 538
0 0 0 0 0 0 0 0 0 0 0 0 0 0 0 0 0 0 0 0 0 0 0 0 0 0 0 0 659 1643 1200 1038 1079 1204 1507 1553 1728 1649 1589 1460 1478 1484 1418 1273 1071 820 662 552 437
0 0 0 0 0 0 0 0 0 0 0 0 0 0 0 0 0 0 0 0 0 0 0 0 0 0 0 0 0 7 1211 1292 1119 1124 1354 1480 1604 1539 1435 1302 1306 1361 1309 1076 968 700 563 505 367
0 0 0 0 0 0 0 0 0 0 0 0 0 0 0 0 0 0 0 0 0 0 0 0 0 0 0 0 0 0 19 663 1261 1092 1285 1524 1540 1485 1396 1286 1214 1298 1171 951 762 591 491 405 300
0 0 0 0 0 0 0 0 0 0 0 0 0 0 0 0 0 0 0 0 0 0 0 0 0 0 0 0 0 0 0 418 752 1067 1222 1461 1456 1497 1486 1387 1262 1205 1150 933 663 556 445 298 168
0 0 0 0 0 0 0 0 0 0 0 0 0 0 0 0 0 0 0 0 0 0 0 0 0 0 0 0 0 0 0 0 648 642 929 1387 1451 1406 1421 1524 1346 1305 1132 927 652 504 391 201 198
0 0 0 0 0 0 0 0 0 0 0 0 0 0 0 0 0 0 0 0 0 0 0 0 0 0 0 0 0 0 0 0 0 134 384 1001 1577 1361 1352 1364 1410 1254 1123 923 784 550 449 216 375
0 0 0 0 0 0 0 0 0 0 0 0 0 0 0 0 0 0 0 0 0 0 0 0 0 0 0 0 0 0 0 0 0 128 513 532 1186 1439 1279 1358 1344 1183 1110 973 823 631 575 420 474
0 0 0 0 0 0 0 0 0 0 0 0 0 0 0 0 0 0 0 0 0 0 0 0 0 0 0 0 0 0 0 0 0 0 73 541 636 1094 1293 1418 1309 1238 1162 983 847 746 577 613 627
0 0 0 0 0 0 0 0 0 0 0 0 0 0 0 0 0 0 0 0 0 0 0 0 0 0 0 0 0 0 0 0 0 0 0 3 492 560 1028 1346 1266 1330 1176 1097 892 753 653 597 450
0 0 0 0 0 0 0 0 0 0 0 0 0 0 0 0 0 0 0 0 0 0 0 0 0 0 0 0 0 0 0 0 0 0 0 0 0 305 598 1043 1266 1355 1263 1045 882 741 638 587 417
0 0 0 0 0 0 0 0 0 0 0 0 0 0 0 0 0 0 0 0 0 0 0 0 0 0 1 0 1 1 1 1 0 0 0 0 0 9 379 726 1186 1223 1237 1049 896 775 644 602 381
0 0 0 0 0 0 0 0 0 0 0 0 0 0 0 0 0 0 0 0 0 0 0 0 0 0 2 0 0 0 0 1 1 0 0 0 0 0 4 401 787 974 1044 1059 919 755 617 557 467
0 0 0 0 0 0 0 0 0 0 0 0 0 0 0 0 0 0 0 0 0 0 0 0 1 0 0 0 1 1 2 1 0 0 1 0 0 0 0 0 207 749 959 1122 979 813 653 629 531
0 0 0 0 0 0 0 0 0 0 0 0 0 0 0 0 0 0 0 0 0 0 0 0 1 1 0 2 2 1 3 1 1 1 1 0 0 0 0 0 0 485 886 1070 1010 848 793 686 664
0 0 0 0 0 0 0 0 0 0 0 0 0 0 0 0 0 0 0 2 0 1 0 0 1 0 0 2 3 2 1 1 6 3 2 4 0 0 0 0 0 0 277 950 989 915 795 724 712
0 0 0 0 0 0 0 0 0 0 0 0 0 0 1 0 1 0 0 1 1 1 1 1 1 0 1 2 2 2 1 2 1 1 0 0 0 0 0 0 0 0 2 820 743 803 702 540 488
0 0 0 0 0 0 0 0 0 0 0 0 0 1 1 2 0 0 0 0 1 1 1 0 0 1 1 2 2 2 2 2 3 1 0 3 2 1 0 0 0 0 0 334 607 564 509 529 357
0 0 0 0 0 0 0 0 0 0 0 0 1 2 0 0 0 0 0 1 0 0 0 0 0 1 1 0 2 1 2 2 2 4 1 2 1 0 0 0 0 0 109 289 559 514 515 427 453
6 0 0 0 0 1 0 0 0 0 0 0 1 1 0 0 0 0 0 0 0 0 0 0 0 1 1 1 1 1 1 1 1 3 7 7 6 3 0 0 0 0 1 7 278 335 425 514 454
3 19 24 0 0 0 0 0 0 0 0 0 0 0 0 0 0 0 0 0 0 0 0 1 1 1 1 0 0 0 0 0 0 3 3 3 8 5 7 5 0 0 1 5 5 7 4 0 1

GFSSGP_con_mlcape_135.txt.gz
CAPE
0 0 0 0 0 0 0 0 0 0 0 0 0 0 0 0 1 8 235 1196 1527 1365 1315 1278 1217 1260 1218 1189 1091 1110 1248 1243 973 788 793 909 1073 1232 1270 1367 1431 1461 1432 1526 1310 1172 1024 681 430
0 0 0 0 0 0 0 0 0 0 0 0 0 0 0 1 8 1 1060 1766 1935 1533 1374 1238 1255 1328 1304 1295 1290 1262 1345 1387 1276 985 884 929 1043 1262 1330 1368 1361 1333 1341 1169 1142 1159 1060 648 547
0 0 0 0 0 0 0 0 0 0 0 0 0 0 0 0 0 0 630 2181 2069 1677 1397 1284 1256 1267 1262 1256 1437 1537 1566 1466 1447 1265 1078 991 1026 1192 1247 1136 1323 1510 1520 1457 1452 1327 964 669 754
0 0 0 0 0 0 0 0 0 0 0 0 0 0 0 0 0 0 2 1808 2056 2090 1819 1620 1341 1175 1216 1292 1352 1588 1783 1703 1566 1497 1344 1159 1091 1161 1148 1146 1649 1798 1748 1624 1495 1313 936 729 830
0 0 0 0 0 0 0 0 0 0 0 0 0 0 0 0 0 0 0 524 1479 1949 2085 1770 1472 1291 1274 1293 1287 1454 1725 1797 1675 1608 1553 1350 1253 1236 1037 1238 1723 1718 1587 1428 1450 1356 988 757 809
0 0 0 0 0 0 0 0 0 0 0 0 0 0 0 0 0 0 0 0 534 1640 1470 1769 1679 1520 1402 1330 1280 1281 1495 1687 1736 1668 1649 1585 1439 1344 1274 1208 1455 1543 1530 1384 1363 1264 972 782 849
0 0 0 0 0 0 0 0 0 0 0 0 0 0 0 0 0 0 0 0 0 0 0 333 1763 1826 1641 1362 1295 1307 1356 1436 1560 1639 1641 1660 1550 1437 1406 1404 1464 1557 1470 1359 1262 1132 951 807 787
0 0 0 0 0 0 0 0 0 0 0 0 0 0 0 0 0 0 0 0 0 0 0 0 0 0 736 1581 1460 1255 1350 1380 1402 1500 1604 1701 1663 1524 1463 1529 1562 1484 1391 1304 1109 957 849 786 768
0 0 0 0 0 0 0 0 0 0 0 0 0 0 0 0 0 0 0 0 0 0 0 0 0 0 0 0 744 1439 1182 1226 1158 1458 1637 1744 1786 1660 1535 1535 1564 1482 1377 1250 1068 892 818 774 750
0 0 0 0 0 0 0 0 0 0 0 0 0 0 0 0 0 0 0 0 0 0 0 0 0 0 0 0 0 0 1123 1165 1221 1297 1318 1618 1736 1752 1658 1546 1564 1529 1410 1258 1056 882 793 752 626
0 0 0 0 0 0 0 0 0 0 0 0 0 0 0 0 0 0 0 0 0 0 0 0 0 0 0 0 0 0 0 450 1162 1259 1181 1362 1580 1700 1770 1567 1555 1530 1478 1309 1089 867 736 640 509
0 0 0 0 0 0 0 0 0 0 0 0 0 0 0 0 0 0 0 0 0 0 0 0 0 0 0 0 0 0 0 0 242 734 1081 1093 1210 1515 1617 1566 1435 1473 1473 1208 981 775 645 475 459
0 0 0 0 0 0 0 0 0 0 0 0 0 0 0 0 0 0 0 0 0 0 0 0 0 0 0 0 0 0 0 0 0 401 778 959 1215 1461 1517 1525 1393 1398 1386 1158 965 737 517 430 382
0 0 0 0 0 0 0 0 0 0 0 0 0 0 0 0 0 0 0 0 0 0 0 0 0 0 0 0 0 0 0 0 0 0 376 756 730 1260 1446 1421 1336 1310 1220 1085 886 654 525 419 344
0 0 0 0 0 0 0 0 0 0 0 0 0 0 0 0 0 0 0 0 0 0 0 0 0 0 0 0 0 0 0 0 0 0 0 274 182 693 1220 1371 1334 1272 1129 1019 808 601 487 366 296
0 0 0 0 0 0 0 0 0 0 0 0 0 0 0 0 0 0 0 0 0 0 0 0 0 0 0 0 0 0 0 0 0 0 0 2 228 392 575 995 1393 1284 1076 994 852 665 518 377 243
0 0 0 0 0 0 0 0 0 0 0 0 0 0 0 0 0 0 0 0 0 0 0 0 0 0 0 0 0 0 0 0 0 0 0 0 20 503 719 807 1123 1378 1205 1039 892 672 506 304 198
0 0 0 0 0 0 0 0 0 0 0 0 0 0 0 0 0 0 0 0 0 0 0 0 0 0 0 0 0 0 0 0 0 0 0 0 0 0 756 571 856 1097 1053 928 850 658 490 359 236
0 0 0 0 0 0 0 0 0 0 0 0 0 0 0 0 0 0 0 0 0 0 0 0 0 0 0 0 0 0 0 0 0 0 0 0 0 0 0 780 571 817 776 886 815 648 492 403 339
0 0 0 0 0 0 0 0 0 0 0 0 0 0 0 0 0 0 0 0 0 0 0 0 0 0 0 0 0 0 0 0 1 0 0 0 0 0 1 199 441 404 742 845 614 578 553 461 304
0 0 0 0 0 0 0 0 0 0 0 0 0 0 0 0 0 0 0 0 0 0 0 0 0 0 1 0 2 1 0 0 0 0 1 0 0 0 0 0 161 106 705 755 551 564 547 507 263
0 0 0 0 0 0 0 0 0 0 0 0 0 0 0 0 0 0 0 0 0 0 0 0 0 0 1 2 2 1 1 2 0 0 0 1 3 0 0 0 0 223 352 666 581 521 522 454 370
0 0 0 0 0 0 0 0 0 0 0 0 0 0 0 0 0 0 0 0 0 0 0 0 0 1 0 0 1 2 2 3 2 0 1 0 0 0 0 0 0 0 0 36 604 532 473 446 410
0 0 0 0 0 0 0 0 0 0 0 0 0 0 0 0 0 0 0 0 1 0 0 0 0 0 1 1 1 2 2 3 2 5 1 0 0 0 0 0 0 0 0 7 15 472 400 434 430
0 0 0 0 0 0 0 0 0 0 0 0 0 0 0 0 0 0 0 0 2 1 0 1 1 0 0 1 2 2 1 2 3 3 8 7 0 1 0 0 0 0 0 0 0 174 381 340 382
0 0 0 0 0 0 0 0 0 0 0 0 0 0 0 0 0 0 0 0 2 1 1 1 1 0 1 0 0 2 3 2 3 3 2 6 5 1 0 0 0 0 0 0 0 16 179 319 350
0 0 0 0 0 0 0 0 0 0 0 0 0 0 0 0 0 0 0 0 0 0 1 0 0 1 1 1 1 1 2 1 2 2 2 2 7 1 23 0 0 0 0 0 0 0 0 362 391
0 0 0 0 0 0 0 0 0 0 0 0 0 0 0 0 0 0 0 0 0 0 0 0 1 1 1 1 2 1 0 2 2 1 3 3 2 0 0 0 0 0 0 0 0 0 0 188 457
0 0 0 0 0 2 0 0 0 0 0 0 0 0 0 0 0 0 0 0 0 0 0 0 1 1 1 0 0 0 0 2 1 2 2 2 3 5 4 2 1 0 1 2 0 3 7 97 332
0 0 0 0 0 2 0 0 0 0 0 0 0 0 0 0 0 0 0 0 0 0 0 0 0 1 0 0 0 0 0 1 1 1 1 1 1 3 5 4 5 4 1 4 7 8 0 0 1

GFSSGP_con_mlcape_138.txt.gz
CAPE
0 0 0 0 0 0 0 0 0 0 0 0 0 0 0 0 3 8 207 1391 1738 1383 1458 1363 1331 1371 1406 1319 1222 1281 1279 1123 949 972 1371 1685 1802 1880 1828 1751 1843 1941 2000 2037 1737 1341 1221 888 498
0 0 0 0 0 0 0 0 0 0 0 0 0 0 0 0 0 29 1441 1268 1834 1396 1310 1291 1334 1329 1274 1325 1328 1373 1508 1400 1137 1038 1147 1423 1670 1726 1731 1738 1712 1860 1875 1830 1675 1375 1192 745 484
0 0 0 0 0 0 0 0 0 0 0 0 0 0 0 0 0 0 0 1450 1941 1508 1343 1341 1304 1284 1287 1338 1419 1490 1623 1572 1444 1180 1151 1278 1504 1577 1569 1555 1450 1285 1275 1283 1394 1322 1056 655 603
0 0 0 0 0 0 0 0 0 0 0 0 0 0 0 0 0 0 0 727 2007 2105 1905 1622 1464 1420 1482 1447 1485 1508 1569 1605 1553 1452 1302 1255 1398 1626 1610 1423 1332 1319 1320 1318 1508 1336 953 718 861
0 0 0 0 0 0 0 0 0 0 0 0 0 0 0 0 0 0 0 0 1 0 18 1308 1420 1458 1418 1466 1747 1750 1700 1705 1637 1606 1485 1365 1309 1363 1418 1357 1420 1479 1435 1621 1501 1214 927 778 947
0 0 0 0 0 0 0 0 0 0 0 0 0 0 0 0 0 0 0 0 0 0 0 0 0 0 228 1260 1292 1362 1544 1465 1783 1681 1668 1574 1516 1304 1156 1258 1542 1523 1332 1346 1320 1166 956 806 884
0 0 0 0 0 0 0 0 0 0 0 0 0 0 0 0 0 0 0 0 0 0 0 0 0 0 0 0 134 930 1232 1517 1502 1524 1665 1650 1582 1492 1307 1126 1357 1444 1336 1223 1263 1101 920 810 885
0 0 0 0 0 0 0 0 0 0 0 0 0 0 0 0 0 0 0 0 0 0 0 0 0 0 0 0 0 0 669 1215 1464 1402 1390 1532 1657 1586 1490 1369 1295 1431 1384 1275 1262 1085 903 818 832
0 0 0 0 0 0 0 0 0 0 0 0 0 0 0 0 0 0 0 0 0 0 0 0 0 0 0 0 0 0 0 128 1127 1246 1132 938 1183 1533 1557 1453 1374 1467 1367 1258 1150 973 834 746 742
0 0 0 0 0 0 0 0 0 0 0 0 0 0 0 0 0 0 0 0 0 0 0 0 0 0 0 0 0 0 0 0 50 737 1092 983 875 1291 1344 1506 1429 1461 1420 1240 1094 920 754 710 654
0 0 0 0 0 0 0 0 0 0 0 0 0 0 0 0 0 0 0 0 0 0 0 0 0 0 0 0 0 0 0 0 0 10 414 640 962 1044 1140 1404 1454 1361 1331 1259 1117 911 715 652 582
0 0 0 0 0 0 0 0 0 0 0 0 0 0 0 0 0 0 0 0 0 0 0 0 0 0 0 0 0 0 0 0 0 0 0 422 785 791 913 1347 1431 1288 1326 1221 1040 787 701 558 505
0 0 0 0 0 0 0 0 0 0 0 0 0 0 0 0 0 0 0 0 0 0 0 0 0 0 0 0 0 0 0 0 0 0 0 0 280 937 1012 925 1070 1266 1367 1303 1036 811 617 381 367
0 0 0 0 0 0 0 0 0 0 0 0 0 0 0 0 0 0 0 0 0 0 0 0 0 0 0 0 0 0 0 0 0 0 0 0 0 266 821 832 865 999 1173 958 937 908 541 380 343
0 0 0 0 0 0 0 0 0 0 0 0 0 0 0 0 0 0 0 0 0 0 0 0 0 0 0 0 0 0 0 0 0 0 0 0 0 0 12 483 711 855 991 1033 685 563 452 426 287
0 0 0 0 0 0 0 0 0 0 0 0 0 0 0 0 0 0 0 0 0 0 0 0 0 0 0 0 0 0 0 0 0 0 0 0 0 0 0 113 498 816 1002 847 796 469 404 542 279
0 0 0 0 0 0 0 0 0 0 0 0 0 0 0 0 0 0 0 0 0 0 0 0 0 0 0 0 0 0 0 0 0 0 0 0 0 0 0 0 336 785 807 581 617 457 419 497 265
0 0 0 0 0 0 0 0 0 0 0 0 0 0 0 0 0 0 0 0 0 0 0 0 0 0 0 0 0 0 0 0 0 0 0 0 0 0 0 0 0 740 703 692 616 579 464 553 321
0 0 0 0 0 0 0 0 0 0 0 0 0 0 0 0 0 0 0 0 0 0 0 0 0 0 0 0 0 0 0 0 1 0 0 1 0 0 0 0 0 2 20 135 578 638 483 358 180
0 0 0 0 0 0 0 0 0 0 0 0 0 0 0 0 0 0 0 0 0 0 0 0 0 0 0 1 1 0 0 1 0 0 1 0 1 2 1 1 4 1 41 0 385 426 376 346 109
0 0 0 0 0 0 0 0 0 0 0 0 0 0 0 0 0 0 0 0 0 0 0 0 0 0 0 0 0 1 1 2 2 1 0 0 1 1 1 1 1 0 0 109 27 398 502 275 142
0 0 0 0 0 0 0 0 0 0 0 0 0 0 0 0 0 0 0 0 0 0 0 0 0 0 0 0 0 1 2 1 3 3 1 0 0 0 0 1 1 0 0 95 133 218 310 430 218
0 0 0 0 0 0 0 0 0 0 0 0 0 0 0 0 0 0 0 0 0 0 0 0 0 0 0 0 0 1 2 2 1 3 1 2 2 0 1 1 0 0 0 0 53 74 266 416 274
0 0 0 0 0 0 0 0 0 0 0 0 0 0 0 0 0 0 0 0 0 0 0 0 0 0 1 3 0 2 1 2 2 2 3 2 7 3 2 1 3 0 0 0 0 13 0 22 304
0 0 0 0 0 0 0 0 0 0 0 0 0 0 0 0 0 0 0 0 0 0 0 0 0 0 0 1 2 2 3 1 1 3 3 3 2 2 4 0 1 0 0 0 0 6 9 0 61
0 0 0 0 0 0 0 0 0 0 0 0 0 0 0 0 0 0 0 0 0 0 0 0 1 0 1 1 2 4 3 1 1 2 2 2 4 2 3 3 2 0 0 0 0 2 1 0 0
0 0 0 0 0 0 0 0 0 0 0 0 0 0 0 0 0 0 0 0 0 0 0 0 0 1 0 0 3 4 4 2 2 2 2 2 2 3 2 1 3 0 0 0 0 0 0 8 0
0 0 0 0 0 0 0 0 0 0 0 0 0 0 0 0 0 0 0 0 0 0 0 0 0 1 1 1 1 3 3 2 1 1 1 2 3 3 1 1 1 0 1 0 0 0 0 0 0
0 0 0 5 8 0 0 0 0 0 0 0 0 0 0 0 0 0 0 0 0 0 0 0 0 0 0 0 1 1 1 2 0 0 1 1 1 3 2 3 3 2 2 0 0 0 0 0 0
0 0 0 0 0 0 0 0 0 0 0 0 0 0 0 0 0 0 0 0 0 0 0 0 0 0 0 0 0 0 0 0 0 1 1 1 1 2 1 2 4 3 6 5 1 0 1 1 0